FW3681 Weather Reports


Display with metric or nautical units.
time (UTC)temp
F
wind
direction
speed
MPH
gust
MPH
rain 1hr
in
rain 24hr
in
rain mn
in
humidity
%
barometer
mb
20260905141100 82 328 3.0 4.0 0.00 0.00 0.00 82 1015.0
20260905140900 82 343 3.0 5.0 0.00 0.00 0.00 83 1015.0
20260905140759 82 340 1.0 5.0 0.00 0.00 0.00 83 1015.0
20260905140700 82 356 1.0 5.0 0.00 0.00 0.00 83 1014.9
20260905140600 81 6 0.0 5.0 0.00 0.00 0.00 83 1014.9
20260905140400 82 322 0.0 5.0 0.00 0.00 0.00 83 1015.0
20260905140200 81 338 2.0 5.0 0.00 0.00 0.00 83 1015.0
20260905140100 81 340 3.0 5.0 0.00 0.00 0.00 83 1015.0
20260905135900 81 338 5.0 5.0 0.00 0.00 0.00 84 1015.0
20260905135701 81 359 3.0 4.0 0.00 0.00 0.00 85 1014.9
20260905135600 81 347 4.0 4.0 0.00 0.00 0.00 85 1015.0
20260905135503 80 329 2.0 3.0 0.00 0.00 0.00 85 1014.9
20260905135401 80 307 0.0 4.0 0.00 0.00 0.00 85 1015.0
20260905135259 80 323 2.0 4.0 0.00 0.00 0.00 85 1015.0
20260905135100 80 319 3.0 4.0 0.00 0.00 0.00 86 1015.0
20260905135004 80 319 2.0 4.0 0.00 0.00 0.00 86 1015.1
20260905134801 80 326 2.0 4.0 0.00 0.00 0.00 86 1015.2
20260905134601 80 293 3.0 4.0 0.00 0.00 0.00 86 1015.1
20260905134503 80 309 4.0 4.0 0.00 0.00 0.00 87 1015.1
20260905134400 80 314 3.0 3.0 0.00 0.00 0.00 87 1015.0
20260905134302 80 326 1.0 3.0 0.00 0.00 0.00 87 1015.0
20260905134200 80 312 2.0 3.0 0.00 0.00 0.00 87 1015.1
20260905134059 80 326 0.0 3.0 0.00 0.00 0.00 87 1015.0
20260905134003 79 313 2.0 3.0 0.00 0.00 0.00 87 1015.0
20260905133900 79 338 2.0 3.0 0.00 0.00 0.00 87 1015.0
20260905133801 79 310 2.0 3.0 0.00 0.00 0.00 88 1015.0
20260905133700 79 311 2.0 3.0 0.00 0.00 0.00 88 1015.0
20260905133600 79 305 0.0 3.0 0.00 0.00 0.00 88 1015.0
20260905133503 79 300 2.0 3.0 0.00 0.00 0.00 89 1015.0
20260905133400 79 298 1.0 3.0 0.00 0.00 0.00 89 1015.1
20260905133300 79 302 2.0 3.0 0.00 0.00 0.00 89 1015.0
20260905133201 78 295 0.0 3.0 0.00 0.00 0.00 89 1015.1
20260905133100 78 292 0.0 3.0 0.00 0.00 0.00 89 1015.2
20260905133004 78 302 0.0 3.0 0.00 0.00 0.00 89 1015.1
20260905132900 78 287 0.0 3.0 0.00 0.00 0.00 89 1015.1
20260905132559 78 293 1.0 3.0 0.00 0.00 0.00 89 1015.2
20260905132503 78 293 2.0 3.0 0.00 0.00 0.00 90 1015.1
20260905132400 78 149 0.0 3.0 0.00 0.00 0.00 90 1015.1
20260905132300 78 149 0.0 3.0 0.00 0.00 0.00 90 1015.1
20260905132201 78 193 2.0 3.0 0.00 0.00 0.00 90 1015.1
20260905132100 78 167 2.0 3.0 0.00 0.00 0.00 90 1015.1
20260905132004 78 283 0.0 3.0 0.00 0.00 0.00 90 1015.1
20260905131900 78 264 2.0 3.0 0.00 0.00 0.00 90 1015.1
20260905131800 78 253 2.0 3.0 0.00 0.00 0.00 91 1015.2
20260905131700 78 248 2.0 3.0 0.00 0.00 0.00 91 1015.2
20260905131600 78 250 0.0 3.0 0.00 0.00 0.00 91 1015.2
20260905131504 78 250 0.0 3.0 0.00 0.00 0.00 91 1015.2
20260905131400 78 253 0.0 3.0 0.00 0.00 0.00 91 1015.2
20260905131300 78 149 0.0 3.0 0.00 0.00 0.00 91 1015.2
20260905131200 77 245 0.0 3.0 0.00 0.00 0.00 91 1015.1
20260905131100 77 270 0.0 3.0 0.00 0.00 0.00 92 1015.2
20260905131003 77 301 1.0 3.0 0.00 0.00 0.00 92 1015.2
20260905130901 77 195 0.0 3.0 0.00 0.00 0.00 92 1015.2
20260905130800 77 147 0.0 3.0 0.00 0.00 0.00 92 1015.2
20260905130700 77 320 0.0 3.0 0.00 0.00 0.00 92 1015.1
20260905130504 77 321 0.0 3.0 0.00 0.00 0.00 92 1015.0
20260905130300 77 276 2.0 3.0 0.00 0.00 0.00 93 1015.0
20260905130200 77 247 1.0 3.0 0.00 0.00 0.00 93 1015.0
20260905130004 77 276 2.0 3.0 0.00 0.00 0.00 93 1015.0
20260905125902 77 277 1.0 3.0 0.00 0.00 0.00 94 1015.0
20260905125658 76 293 0.0 2.0 0.00 0.00 0.00 94 1015.0
20260905125559 76 294 0.0 3.0 0.00 0.00 0.00 94 1015.0
20260905125503 76 271 0.0 3.0 0.00 0.00 0.00 94 1015.1
20260905125359 76 200 0.0 3.0 0.00 0.00 0.00 94 1015.0
20260905125259 76 212 0.0 3.0 0.00 0.00 0.00 94 1015.0
20260905125200 76 264 0.0 3.0 0.00 0.00 0.00 94 1015.0
20260905125100 76 264 1.0 3.0 0.00 0.00 0.00 95 1015.0
20260905124859 76 269 1.0 3.0 0.00 0.00 0.00 95 1015.1
20260905124800 76 286 0.0 3.0 0.00 0.00 0.00 95 1015.1
20260905124659 76 323 3.0 3.0 0.00 0.00 0.00 95 1015.1
20260905124559 76 286 1.0 3.0 0.00 0.00 0.00 95 1015.0
20260905124500 76 309 0.0 3.0 0.00 0.00 0.00 95 1015.0
20260905124359 76 302 0.0 3.0 0.00 0.00 0.00 95 1015.1
20260905124259 76 284 1.0 3.0 0.00 0.00 0.00 95 1015.0
20260905124159 76 219 0.0 3.0 0.00 0.00 0.00 95 1015.0
20260905124101 76 304 0.0 3.0 0.00 0.00 0.00 95 1015.0
20260905124003 76 329 2.0 3.0 0.00 0.00 0.00 95 1015.0
20260905123859 76 312 1.0 3.0 0.00 0.00 0.00 95 1015.0
20260905123800 76 328 2.0 3.0 0.00 0.00 0.00 95 1015.0
20260905123700 76 324 2.0 3.0 0.00 0.00 0.00 95 1015.0
20260905123500 75 296 1.0 3.0 0.00 0.00 0.00 95 1015.0
20260905123400 75 314 1.0 3.0 0.00 0.00 0.00 95 1015.0
20260905123300 75 293 1.0 3.0 0.00 0.00 0.00 95 1015.0
20260905123159 75 307 0.0 3.0 0.00 0.00 0.00 95 1015.0
20260905123100 75 214 0.0 3.0 0.00 0.00 0.00 96 1015.0
20260905123003 75 316 1.0 3.0 0.00 0.00 0.00 96 1015.0
20260905122859 75 337 2.0 3.0 0.00 0.00 0.00 95 1015.0
20260905122800 75 324 1.0 3.0 0.00 0.00 0.00 95 1014.9
20260905122659 75 338 2.0 3.0 0.00 0.00 0.00 95 1015.0
20260905122559 75 349 3.0 3.0 0.00 0.00 0.00 95 1014.9
20260905122401 75 347 2.0 3.0 0.00 0.00 0.00 95 1015.0
20260905122300 75 283 3.0 3.0 0.00 0.00 0.00 96 1014.9
20260905122200 75 295 0.0 3.0 0.00 0.00 0.00 96 1014.9
20260905122003 75 347 1.0 3.0 0.00 0.00 0.00 96 1014.8
20260905121900 75 299 2.0 3.0 0.00 0.00 0.00 96 1014.8
20260905121759 75 297 0.0 3.0 0.00 0.00 0.00 96 1014.9
20260905121659 75 319 1.0 3.0 0.00 0.00 0.00 96 1014.9
20260905121600 75 271 0.0 3.0 0.00 0.00 0.00 96 1014.9
20260905121503 75 309 0.0 3.0 0.00 0.00 0.00 96 1014.7
20260905121400 75 288 2.0 3.0 0.00 0.00 0.00 96 1014.8
20260905121300 75 349 0.0 3.0 0.00 0.00 0.00 96 1014.8
20260905121200 75 323 0.0 3.0 0.00 0.00 0.00 96 1014.8
20260905120759 75 329 2.0 3.0 0.00 0.00 0.00 96 1014.8
20260905120700 74 338 3.0 3.0 0.00 0.00 0.00 96 1014.7
20260905120559 74 347 2.0 2.0 0.00 0.00 0.00 96 1014.8
20260905120500 74 358 1.0 2.0 0.00 0.00 0.00 96 1014.7
20260905120359 74 335 1.0 2.0 0.00 0.00 0.00 96 1014.7
20260905120159 74 314 0.0 2.0 0.00 0.00 0.00 96 1014.7
20260905120101 74 333 0.0 2.0 0.00 0.00 0.00 96 1014.6
20260905120005 74 333 2.0 2.0 0.00 0.00 0.00 95 1014.6
20260905115900 74 333 2.0 2.0 0.00 0.00 0.00 95 1014.7
20260905115801 74 321 1.0 2.0 0.00 0.00 0.00 95 1014.6
20260905115700 74 314 0.0 2.0 0.00 0.00 0.00 95 1014.6
20260905115600 74 323 0.0 3.0 0.00 0.00 0.00 95 1014.6
20260905115503 74 333 0.0 3.0 0.00 0.00 0.00 95 1014.6
20260905115401 74 333 0.0 3.0 0.00 0.00 0.00 95 1014.6
20260905115100 74 302 0.0 3.0 0.00 0.00 0.00 95 1014.7
20260905115003 74 284 1.0 3.0 0.00 0.00 0.00 96 1014.6
20260905114900 74 323 1.0 3.0 0.00 0.00 0.00 95 1014.6
20260905114800 74 303 2.0 3.0 0.00 0.00 0.00 95 1014.6
20260905114700 74 295 2.0 3.0 0.00 0.00 0.00 95 1014.6
20260905114600 74 311 0.0 3.0 0.00 0.00 0.00 95 1014.6
20260905114503 74 314 2.0 3.0 0.00 0.00 0.00 95 1014.6
20260905114359 74 338 1.0 3.0 0.00 0.00 0.00 95 1014.6
20260905114201 74 324 2.0 3.0 0.00 0.00 0.00 95 1014.6
20260905113900 74 321 3.0 3.0 0.00 0.00 0.00 95 1014.5
20260905113800 74 321 3.0 3.0 0.00 0.00 0.00 95 1014.5
20260905113700 74 328 2.0 3.0 0.00 0.00 0.00 95 1014.4
20260905113600 74 328 2.0 3.0 0.00 0.00 0.00 95 1014.5
20260905113300 74 314 2.0 3.0 0.00 0.00 0.00 95 1014.3
20260905113200 74 333 2.0 3.0 0.00 0.00 0.00 95 1014.3
20260905113100 74 302 2.0 3.0 0.00 0.00 0.00 95 1014.4
20260905113004 74 296 1.0 3.0 0.00 0.00 0.00 95 1014.3
20260905112900 74 326 2.0 3.0 0.00 0.00 0.00 95 1014.3
20260905112801 74 338 2.0 3.0 0.00 0.00 0.00 95 1014.3
20260905112700 74 321 0.0 3.0 0.00 0.00 0.00 95 1014.2
20260905112559 74 316 2.0 3.0 0.00 0.00 0.00 95 1014.2
20260905112503 74 319 1.0 2.0 0.00 0.00 0.00 95 1014.2
20260905112359 74 309 0.0 2.0 0.00 0.00 0.00 95 1014.2
20260905112300 74 333 2.0 2.0 0.00 0.00 0.00 95 1014.1
20260905112100 74 330 1.0 2.0 0.00 0.00 0.00 95 1014.1
20260905112003 74 312 1.0 2.0 0.00 0.00 0.00 95 1014.1
20260905111901 74 317 0.0 2.0 0.00 0.00 0.00 95 1014.1
20260905111801 74 311 0.0 2.0 0.00 0.00 0.00 95 1014.0
20260905111700 74 338 0.0 2.0 0.00 0.00 0.00 95 1014.1
20260905111600 74 335 0.0 2.0 0.00 0.00 0.00 95 1014.0
20260905111502 74 321 0.0 2.0 0.00 0.00 0.00 95 1014.0
20260905111400 74 324 0.0 2.0 0.00 0.00 0.00 95 1014.0
20260905111259 74 321 1.0 2.0 0.00 0.00 0.00 95 1013.9
20260905111101 74 317 0.0 2.0 0.00 0.00 0.00 95 1013.9
20260905110900 74 309 2.0 2.0 0.00 0.00 0.00 95 1014.0
20260905110800 74 304 1.0 2.0 0.00 0.00 0.00 95 1013.9
20260905110700 74 307 0.0 2.0 0.00 0.00 0.00 95 1013.8
20260905110359 74 319 0.0 2.0 0.00 0.00 0.00 94 1013.7
20260905110300 74 345 0.0 2.0 0.00 0.00 0.00 94 1013.8
20260905110200 74 342 1.0 2.0 0.00 0.00 0.00 94 1013.8
20260905110101 74 319 0.0 2.0 0.00 0.00 0.00 94 1013.8
20260905110006 74 276 2.0 2.0 0.00 0.00 0.00 94 1013.8
20260905105859 74 302 1.0 3.0 0.00 0.00 0.00 94 1013.7
20260905105800 74 303 1.0 3.0 0.00 0.00 0.00 94 1013.7
20260905105700 74 345 1.0 3.0 0.00 0.00 0.00 94 1013.6
20260905105359 74 326 1.0 3.0 0.00 0.00 0.00 94 1013.7
20260905105301 74 300 0.0 3.0 0.00 0.00 0.00 94 1013.7
20260905105101 74 319 0.0 3.0 0.00 0.00 0.00 94 1013.6
20260905105004 74 319 0.0 3.0 0.00 0.00 0.00 94 1013.6
20260905104900 74 354 0.0 3.0 0.00 0.00 0.00 94 1013.5
20260905104800 74 330 1.0 3.0 0.00 0.00 0.00 94 1013.5
20260905104700 74 305 1.0 3.0 0.00 0.00 0.00 94 1013.5
20260905104601 74 304 1.0 3.0 0.00 0.00 0.00 94 1013.5
20260905104503 74 295 2.0 3.0 0.00 0.00 0.00 94 1013.5
20260905104400 74 307 0.0 3.0 0.00 0.00 0.00 94 1013.5
20260905104101 74 302 3.0 3.0 0.00 0.00 0.00 94 1013.5
20260905104003 74 314 2.0 3.0 0.00 0.00 0.00 94 1013.5
20260905103800 74 295 2.0 3.0 0.00 0.00 0.00 93 1013.5
20260905103659 74 281 3.0 3.0 0.00 0.00 0.00 93 1013.5
20260905103503 74 309 1.0 3.0 0.00 0.00 0.00 93 1013.5
20260905103359 74 287 0.0 3.0 0.00 0.00 0.00 93 1013.4
20260905103259 74 296 2.0 3.0 0.00 0.00 0.00 93 1013.5
20260905103200 74 258 1.0 3.0 0.00 0.00 0.00 93 1013.4
20260905103003 74 286 2.0 3.0 0.00 0.00 0.00 93 1013.6
20260905102900 74 254 0.0 2.0 0.00 0.00 0.00 93 1013.6
20260905102801 74 331 0.0 3.0 0.00 0.00 0.00 93 1013.5
20260905102601 74 319 0.0 3.0 0.00 0.00 0.00 93 1013.6
20260905102503 74 319 0.0 3.0 0.00 0.00 0.00 93 1013.6
20260905102400 74 319 0.0 3.0 0.00 0.00 0.00 93 1013.7
20260905102300 74 273 0.0 3.0 0.00 0.00 0.00 93 1013.6
20260905102200 74 302 0.0 3.0 0.00 0.00 0.00 93 1013.7
20260905102100 74 295 0.0 3.0 0.00 0.00 0.00 93 1013.7
20260905102003 74 297 1.0 3.0 0.00 0.00 0.00 93 1013.6
20260905101900 74 281 0.0 3.0 0.00 0.00 0.00 93 1013.7
20260905101800 74 328 1.0 3.0 0.00 0.00 0.00 93 1013.6
20260905101700 74 337 0.0 3.0 0.00 0.00 0.00 93 1013.7
20260905101601 74 352 2.0 3.0 0.00 0.00 0.00 93 1013.7
20260905101503 74 356 1.0 3.0 0.00 0.00 0.00 92 1013.7
20260905101400 74 307 0.0 3.0 0.00 0.00 0.00 92 1013.7
20260905101300 74 323 1.0 3.0 0.00 0.00 0.00 92 1013.7
20260905101100 74 250 1.0 2.0 0.00 0.00 0.00 93 1013.8
20260905101004 74 312 0.0 2.0 0.00 0.00 0.00 93 1013.8
20260905100900 74 312 0.0 2.0 0.00 0.00 0.00 93 1013.8
20260905100759 74 302 0.0 2.0 0.00 0.00 0.00 93 1013.8
20260905100701 74 317 1.0 2.0 0.00 0.00 0.00 92 1013.8
20260905100600 74 314 1.0 2.0 0.00 0.00 0.00 92 1013.7
20260905100502 74 293 0.0 2.0 0.00 0.00 0.00 92 1013.8
20260905100400 74 323 0.0 2.0 0.00 0.00 0.00 92 1013.7
20260905100301 74 303 1.0 3.0 0.00 0.00 0.00 92 1013.7
20260905100200 74 282 1.0 3.0 0.00 0.00 0.00 92 1013.7
20260905100004 74 251 0.0 3.0 0.00 0.00 0.00 92 1013.7
20260905095900 74 316 1.0 3.0 0.00 0.00 0.00 92 1013.7
20260905095800 74 319 0.0 3.0 0.00 0.00 0.00 92 1013.7
20260905095700 74 314 0.0 3.0 0.00 0.00 0.00 92 1013.7
20260905095600 74 333 0.0 3.0 0.00 0.00 0.00 92 1013.7
20260905095503 74 328 2.0 3.0 0.00 0.00 0.00 92 1013.7
20260905095401 74 344 0.0 2.0 0.00 0.00 0.00 92 1013.7
20260905095300 74 319 0.0 2.0 0.00 0.00 0.00 92 1013.7
20260905095200 74 309 2.0 2.0 0.00 0.00 0.00 92 1013.8
20260905095100 75 312 2.0 2.0 0.00 0.00 0.00 92 1013.7
20260905095004 75 321 0.0 1.0 0.00 0.00 0.00 92 1013.7
20260905094759 75 321 0.0 1.0 0.00 0.00 0.00 92 1013.7
20260905094700 75 321 0.0 1.0 0.00 0.00 0.00 92 1013.6
20260905094559 75 321 0.0 1.0 0.00 0.00 0.00 92 1013.7
20260905094502 75 305 0.0 1.0 0.00 0.00 0.00 92 1013.7
20260905094300 75 323 0.0 2.0 0.00 0.00 0.00 92 1013.7
20260905094200 75 300 0.0 3.0 0.00 0.00 0.00 92 1013.7
20260905094100 75 300 0.0 3.0 0.00 0.00 0.00 92 1013.7
20260905093900 75 342 0.0 3.0 0.00 0.00 0.00 92 1013.8
20260905093759 75 342 0.0 3.0 0.00 0.00 0.00 92 1013.6
20260905093659 75 342 0.0 3.0 0.00 0.00 0.00 92 1013.7
20260905093600 75 344 0.0 3.0 0.00 0.00 0.00 92 1013.7
20260905093502 75 329 0.0 3.0 0.00 0.00 0.00 92 1013.7
20260905093259 75 352 1.0 3.0 0.00 0.00 0.00 92 1013.7
20260905093200 75 344 2.0 3.0 0.00 0.00 0.00 92 1013.8
20260905093004 75 316 0.0 3.0 0.00 0.00 0.00 92 1013.8
20260905092801 75 337 1.0 3.0 0.00 0.00 0.00 92 1013.7
20260905092700 74 337 1.0 3.0 0.00 0.00 0.00 92 1013.6
20260905092600 75 309 0.0 3.0 0.00 0.00 0.00 92 1013.7
20260905092401 75 27 0.0 3.0 0.00 0.00 0.00 92 1013.7
20260905092300 74 340 2.0 3.0 0.00 0.00 0.00 92 1013.7
20260905092159 75 333 1.0 2.0 0.00 0.00 0.00 92 1013.7
20260905092100 74 307 0.0 2.0 0.00 0.00 0.00 92 1013.7
20260905092003 74 310 0.0 2.0 0.00 0.00 0.00 92 1013.7
20260905091759 74 335 0.0 2.0 0.00 0.00 0.00 92 1013.6
20260905091701 74 328 0.0 2.0 0.00 0.00 0.00 92 1013.6
20260905091559 74 319 0.0 2.0 0.00 0.00 0.00 92 1013.7
20260905091503 74 340 2.0 3.0 0.00 0.00 0.00 92 1013.7
20260905091400 75 323 0.0 3.0 0.00 0.00 0.00 92 1013.7
20260905091301 75 323 0.0 3.0 0.00 0.00 0.00 92 1013.7
20260905091200 74 333 0.0 3.0 0.00 0.00 0.00 92 1013.7
20260905091059 75 333 0.0 3.0 0.00 0.00 0.00 92 1013.7
20260905091004 74 340 0.0 3.0 0.00 0.00 0.00 92 1013.7
20260905090900 74 8 0.0 3.0 0.00 0.00 0.00 92 1013.7
20260905090800 75 333 1.0 3.0 0.00 0.00 0.00 92 1013.8
20260905090700 75 1 2.0 3.0 0.00 0.00 0.00 92 1013.7
20260905090600 74 358 2.0 3.0 0.00 0.00 0.00 92 1013.7
20260905090401 75 32 0.0 3.0 0.00 0.00 0.00 92 1013.6
20260905090301 74 12 0.0 3.0 0.00 0.00 0.00 92 1013.7
20260905090200 74 356 2.0 3.0 0.00 0.00 0.00 92 1013.8
20260905090003 74 15 2.0 3.0 0.00 0.00 0.00 92 1013.8
20260905085859 74 319 0.0 3.0 0.00 0.00 0.00 92 1013.7
20260905085800 75 319 0.0 3.0 0.00 0.00 0.00 92 1013.8
20260905085701 74 340 0.0 3.0 0.00 0.00 0.00 92 1013.7
20260905085600 75 344 1.0 3.0 0.00 0.00 0.00 92 1013.7
20260905085503 74 10 0.0 3.0 0.00 0.00 0.00 92 1013.7
20260905085401 75 354 0.0 3.0 0.00 0.00 0.00 92 1013.7
20260905085301 75 360 3.0 3.0 0.00 0.00 0.00 92 1013.8
20260905085101 75 302 0.0 3.0 0.00 0.00 0.00 92 1013.8
20260905085004 74 326 0.0 3.0 0.00 0.00 0.00 92 1013.8
20260905084900 74 328 0.0 3.0 0.00 0.00 0.00 92 1013.9
20260905084759 74 345 0.0 3.0 0.00 0.00 0.00 92 1013.9
20260905084659 75 333 0.0 3.0 0.00 0.00 0.00 92 1013.9
20260905084601 75 319 0.0 3.0 0.00 0.00 0.00 92 1013.9
20260905084502 75 316 0.0 3.0 0.00 0.00 0.00 92 1013.9
20260905084400 74 319 2.0 3.0 0.00 0.00 0.00 92 1013.9
20260905084301 74 335 1.0 3.0 0.00 0.00 0.00 92 1013.9
20260905084201 74 330 1.0 3.0 0.00 0.00 0.00 92 1013.9
20260905084101 74 330 0.0 3.0 0.00 0.00 0.00 92 1013.9
20260905084003 74 38 1.0 3.0 0.00 0.00 0.00 92 1013.9
20260905083900 74 319 2.0 3.0 0.00 0.00 0.00 92 1013.8
20260905083800 74 351 2.0 3.0 0.00 0.00 0.00 92 1013.9
20260905083503 74 316 2.0 3.0 0.00 0.00 0.00 92 1013.9
20260905083301 75 316 0.0 3.0 0.00 0.00 0.00 92 1013.8
20260905083159 75 328 0.0 3.0 0.00 0.00 0.00 92 1013.7
20260905083004 75 323 2.0 2.0 0.00 0.00 0.00 92 1013.8
20260905082900 75 323 0.0 2.0 0.00 0.00 0.00 92 1013.8
20260905082800 75 323 0.0 3.0 0.00 0.00 0.00 92 1013.7
20260905082700 75 328 0.0 3.0 0.00 0.00 0.00 92 1013.7
20260905082601 75 302 0.0 3.0 0.00 0.00 0.00 92 1013.7
20260905082503 75 302 0.0 3.0 0.00 0.00 0.00 92 1013.8
20260905082400 75 300 0.0 3.0 0.00 0.00 0.00 92 1013.8
20260905082300 75 323 2.0 3.0 0.00 0.00 0.00 92 1013.6
20260905082100 75 337 0.0 3.0 0.00 0.00 0.00 92 1013.6
20260905081900 75 8 3.0 3.0 0.00 0.00 0.00 92 1013.7
20260905081759 75 352 1.0 3.0 0.00 0.00 0.00 92 1013.5
20260905081700 75 337 1.0 3.0 0.00 0.00 0.00 92 1013.5
20260905081600 75 309 0.0 3.0 0.00 0.00 0.00 92 1013.6
20260905081502 75 312 0.0 3.0 0.00 0.00 0.00 92 1013.5
20260905081359 75 295 2.0 3.0 0.00 0.00 0.00 92 1013.5
20260905081301 75 323 1.0 3.0 0.00 0.00 0.00 92 1013.5
20260905081159 75 344 2.0 3.0 0.00 0.00 0.00 92 1013.5
20260905081100 75 328 1.0 2.0 0.00 0.00 0.00 92 1013.6
20260905081005 75 324 0.0 1.0 0.00 0.00 0.00 92 1013.5
20260905080901 75 311 0.0 1.0 0.00 0.00 0.00 92 1013.6
20260905080801 75 311 0.0 1.0 0.00 0.00 0.00 92 1013.6
20260905080700 75 309 0.0 1.0 0.00 0.00 0.00 92 1013.6
20260905080600 75 309 0.0 2.0 0.00 0.00 0.00 92 1013.5
20260905080401 75 345 0.0 2.0 0.00 0.00 0.00 92 1013.6
20260905080300 75 314 0.0 2.0 0.00 0.00 0.00 92 1013.6
20260905080201 75 314 0.0 2.0 0.00 0.00 0.00 92 1013.6
20260905080100 75 314 0.0 2.0 0.00 0.00 0.00 92 1013.6
20260905080003 75 314 0.0 2.0 0.00 0.00 0.00 92 1013.7
20260905075859 75 314 0.0 2.0 0.00 0.00 0.00 92 1013.7
20260905075759 75 333 0.0 2.0 0.00 0.00 0.00 92 1013.8
20260905075658 75 333 0.0 2.0 0.00 0.00 0.00 92 1013.6
20260905075558 75 342 1.0 2.0 0.00 0.00 0.00 92 1013.7
20260905075501 75 307 0.0 2.0 0.00 0.00 0.00 92 1013.7
20260905075359 75 269 0.0 2.0 0.00 0.00 0.00 92 1013.6
20260905075159 75 294 0.0 2.0 0.00 0.00 0.00 92 1013.7
20260905075059 75 310 1.0 2.0 0.00 0.00 0.00 92 1013.6
20260905074859 75 293 2.0 2.0 0.00 0.00 0.00 92 1013.7
20260905074759 75 285 0.0 2.0 0.00 0.00 0.00 92 1013.7
20260905074659 75 316 0.0 2.0 0.00 0.00 0.00 92 1013.7
20260905074500 75 309 1.0 2.0 0.00 0.00 0.00 92 1013.6
20260905074359 75 329 1.0 2.0 0.00 0.00 0.00 92 1013.7
20260905074259 75 305 0.0 2.0 0.00 0.00 0.00 92 1013.6
20260905074200 75 338 0.0 2.0 0.00 0.00 0.00 92 1013.7
20260905074058 75 360 0.0 2.0 0.00 0.00 0.00 92 1013.6
20260905074002 75 338 0.0 2.0 0.00 0.00 0.00 92 1013.6
20260905073859 75 338 0.0 2.0 0.00 0.00 0.00 92 1013.6
20260905073600 75 349 0.0 2.0 0.00 0.00 0.00 92 1013.6
20260905073500 75 307 0.0 2.0 0.00 0.00 0.00 92 1013.7
20260905073359 75 323 0.0 2.0 0.00 0.00 0.00 92 1013.6
20260905073259 75 340 0.0 3.0 0.00 0.00 0.00 91 1013.6
20260905073159 75 337 0.0 3.0 0.00 0.00 0.00 92 1013.6
20260905073059 75 310 2.0 3.0 0.00 0.00 0.00 92 1013.6
20260905073003 75 323 2.0 3.0 0.00 0.00 0.00 92 1013.6
20260905072859 75 323 2.0 3.0 0.00 0.00 0.00 91 1013.6
20260905072759 75 342 0.0 3.0 0.00 0.00 0.00 91 1013.6
20260905072659 75 324 0.0 3.0 0.00 0.00 0.00 91 1013.6
20260905072559 75 356 0.0 3.0 0.00 0.00 0.00 91 1013.6
20260905072500 75 24 2.0 3.0 0.00 0.00 0.00 91 1013.6
20260905072359 75 340 0.0 3.0 0.00 0.00 0.00 91 1013.6
20260905072259 75 1 2.0 3.0 0.00 0.00 0.00 91 1013.6
20260905072158 75 324 2.0 3.0 0.00 0.00 0.00 91 1013.5
20260905072059 75 349 2.0 4.0 0.00 0.00 0.00 91 1013.5
20260905072001 75 345 0.0 4.0 0.00 0.00 0.00 91 1013.5
20260905071859 75 349 0.0 4.0 0.00 0.00 0.00 91 1013.5
20260905071759 75 337 0.0 4.0 0.00 0.00 0.00 91 1013.5
20260905071659 75 356 0.0 4.0 0.00 0.00 0.00 91 1013.5
20260905071500 75 335 0.0 4.0 0.00 0.00 0.00 91 1013.5
20260905071400 75 96 0.0 4.0 0.00 0.00 0.00 91 1013.5
20260905071303 75 83 1.0 4.0 0.00 0.00 0.00 91 1013.5
20260905071159 75 20 3.0 3.0 0.00 0.00 0.00 91 1013.5
20260905071100 75 323 0.0 3.0 0.00 0.00 0.00 91 1013.5
20260905071002 75 323 2.0 3.0 0.00 0.00 0.00 91 1013.5
20260905070859 75 22 0.0 2.0 0.00 0.00 0.00 91 1013.5
20260905070800 75 127 0.0 2.0 0.00 0.00 0.00 91 1013.5
20260905070659 75 309 0.0 2.0 0.00 0.00 0.00 91 1013.5
20260905070559 75 326 0.0 2.0 0.00 0.00 0.00 91 1013.5
20260905070501 75 356 0.0 2.0 0.00 0.00 0.00 91 1013.4
20260905070359 75 340 0.0 2.0 0.00 0.00 0.00 91 1013.5
20260905070300 75 328 0.0 3.0 0.00 0.00 0.00 91 1013.4
20260905070159 75 17 0.0 3.0 0.00 0.00 0.00 91 1013.5
20260905070059 75 41 0.0 3.0 0.00 0.00 0.00 91 1013.4
20260905070003 75 328 0.0 3.0 0.00 0.00 0.00 91 1013.3
20260905065858 75 328 0.0 3.0 0.00 0.00 0.00 91 1013.5
20260905065759 75 328 0.0 3.0 0.00 0.00 0.00 91 1013.4
20260905065659 75 321 0.0 3.0 0.00 0.00 0.00 91 1013.5
20260905065558 75 300 0.0 3.0 0.00 0.00 0.00 91 1013.4
20260905065500 75 317 1.0 3.0 0.00 0.00 0.00 91 1013.3
20260905065359 75 340 0.0 2.0 0.00 0.00 0.00 91 1013.3
20260905065301 75 114 0.0 3.0 0.00 0.00 0.00 91 1013.3
20260905065158 75 114 0.0 3.0 0.00 0.00 0.00 91 1013.5
20260905065002 75 309 0.0 3.0 0.00 0.00 0.00 91 1013.3
20260905064858 75 309 0.0 3.0 0.00 0.00 0.00 91 1013.4
20260905064659 75 356 0.0 3.0 0.00 0.00 0.00 91 1013.3
20260905064559 75 356 0.0 3.0 0.00 0.00 0.00 91 1013.3
20260905064501 75 295 0.0 4.0 0.00 0.00 0.00 90 1013.4
20260905064359 75 285 0.0 4.0 0.00 0.00 0.00 91 1013.3
20260905064059 75 311 0.0 4.0 0.00 0.00 0.00 90 1013.4
20260905064003 75 340 0.0 4.0 0.00 0.00 0.00 90 1013.4
20260905063900 75 345 1.0 4.0 0.00 0.00 0.00 90 1013.3
20260905063759 75 323 0.0 4.0 0.00 0.00 0.00 90 1013.4
20260905063600 75 331 2.0 4.0 0.00 0.00 0.00 90 1013.4
20260905063500 75 330 1.0 3.0 0.00 0.00 0.00 90 1013.4
20260905063258 75 293 0.0 3.0 0.00 0.00 0.00 90 1013.4
20260905063158 75 317 1.0 3.0 0.00 0.00 0.00 90 1013.3
20260905063059 75 295 0.0 2.0 0.00 0.00 0.00 90 1013.4
20260905063003 75 314 0.0 2.0 0.00 0.00 0.00 90 1013.4
20260905062859 75 354 0.0 2.0 0.00 0.00 0.00 90 1013.4
20260905062800 75 338 2.0 2.0 0.00 0.00 0.00 90 1013.5
20260905062659 75 305 0.0 2.0 0.00 0.00 0.00 90 1013.6
20260905062559 75 305 0.0 2.0 0.00 0.00 0.00 90 1013.6
20260905062500 75 314 0.0 2.0 0.00 0.00 0.00 90 1013.6
20260905062400 75 309 0.0 2.0 0.00 0.00 0.00 90 1013.6
20260905062058 75 305 0.0 3.0 0.00 0.00 0.00 90 1013.6
20260905062003 75 333 0.0 3.0 0.00 0.00 0.00 90 1013.6
20260905061859 75 351 0.0 3.0 0.00 0.00 0.00 90 1013.5
20260905061659 75 295 0.0 3.0 0.00 0.00 0.00 90 1013.5
20260905061559 75 314 2.0 3.0 0.00 0.00 0.00 90 1013.6
20260905061500 75 278 1.0 3.0 0.00 0.00 0.00 90 1013.6
20260905061359 75 277 0.0 3.0 0.00 0.00 0.00 90 1013.6
20260905061159 75 262 1.0 3.0 0.00 0.00 0.00 90 1013.5
20260905061058 75 302 0.0 3.0 0.00 0.00 0.00 90 1013.6
20260905060859 75 342 2.0 3.0 0.00 0.00 0.00 90 1013.6
20260905060759 75 297 2.0 3.0 0.00 0.00 0.00 90 1013.5
20260905060659 75 295 2.0 3.0 0.00 0.00 0.00 90 1013.6
20260905060600 75 274 0.0 3.0 0.00 0.00 0.00 90 1013.5
20260905060259 75 286 1.0 3.0 0.00 0.00 0.00 90 1013.5
20260905060159 75 305 0.0 3.0 0.00 0.00 0.00 89 1013.5
20260905060059 75 279 0.0 3.0 0.00 0.00 0.00 89 1013.5
20260905055901 75 300 1.0 3.0 0.00 0.00 0.00 90 1013.6
20260905055801 75 284 2.0 3.0 0.00 0.00 0.00 90 1013.6
20260905055701 75 286 2.0 3.0 0.00 0.00 0.00 89 1013.6
20260905055601 75 314 2.0 3.0 0.00 0.00 0.00 90 1013.7
20260905055503 75 284 3.0 3.0 0.00 0.00 0.00 90 1013.6
20260905055401 75 286 3.0 3.0 0.00 0.00 0.00 90 1013.7
20260905055301 75 286 2.0 3.0 0.00 0.00 0.00 90 1013.7
20260905055201 75 279 2.0 3.0 0.00 0.00 0.00 89 1013.7
20260905055101 75 275 1.0 3.0 0.00 0.00 0.00 90 1013.6
20260905055003 75 270 2.0 3.0 0.00 0.00 0.00 90 1013.7
20260905054901 75 282 2.0 3.0 0.00 0.00 0.00 89 1013.7
20260905054801 75 288 0.0 3.0 0.00 0.00 0.00 89 1013.7
20260905054701 75 288 0.0 3.0 0.00 0.00 0.00 89 1013.7
20260905054504 75 317 0.0 3.0 0.00 0.00 0.00 89 1013.8
20260905054200 75 323 2.0 3.0 0.00 0.00 0.00 89 1013.8
20260905054101 75 311 1.0 3.0 0.00 0.00 0.00 89 1013.8
20260905054004 75 290 2.0 3.0 0.00 0.00 0.00 89 1013.8
20260905053701 75 316 1.0 3.0 0.00 0.00 0.00 89 1013.7
20260905053602 75 324 1.0 3.0 0.00 0.00 0.00 89 1013.7
20260905053504 75 340 1.0 3.0 0.00 0.00 0.00 89 1013.7
20260905053401 75 302 1.0 3.0 0.00 0.00 0.00 89 1013.7
20260905053300 75 319 1.0 3.0 0.00 0.00 0.00 89 1013.7
20260905053100 75 302 1.0 3.0 0.00 0.00 0.00 89 1013.6
20260905053004 75 309 1.0 3.0 0.00 0.00 0.00 89 1013.7
20260905052901 75 296 2.0 3.0 0.00 0.00 0.00 89 1013.7
20260905052801 75 281 2.0 3.0 0.00 0.00 0.00 89 1013.7
20260905052701 75 288 0.0 2.0 0.00 0.00 0.00 89 1013.6
20260905052600 75 294 1.0 2.0 0.00 0.00 0.00 89 1013.6
20260905052503 75 309 0.0 3.0 0.00 0.00 0.00 89 1013.6
20260905052401 75 326 0.0 3.0 0.00 0.00 0.00 89 1013.7
20260905052301 75 326 0.0 3.0 0.00 0.00 0.00 89 1013.7
20260905052201 75 300 0.0 3.0 0.00 0.00 0.00 89 1013.7
20260905052101 75 307 1.0 3.0 0.00 0.00 0.00 89 1013.6
20260905052004 75 316 1.0 3.0 0.00 0.00 0.00 89 1013.6
20260905051901 75 302 1.0 3.0 0.00 0.00 0.00 89 1013.6
20260905051800 75 307 2.0 3.0 0.00 0.00 0.00 89 1013.6
20260905051701 75 295 2.0 3.0 0.00 0.00 0.00 89 1013.6
20260905051601 75 307 2.0 3.0 0.00 0.00 0.00 89 1013.6
20260905051401 75 293 2.0 3.0 0.00 0.00 0.00 89 1013.6
20260905051101 75 305 2.0 3.0 0.00 0.00 0.00 89 1013.6
20260905051005 75 302 2.0 3.0 0.00 0.00 0.00 89 1013.6
20260905050900 75 295 2.0 3.0 0.00 0.00 0.00 88 1013.5
20260905050701 75 314 1.0 3.0 0.00 0.00 0.00 88 1013.6
20260905050503 76 295 1.0 3.0 0.00 0.00 0.00 88 1013.7
20260905050401 75 295 1.0 3.0 0.00 0.00 0.00 88 1013.7
20260905050301 76 316 0.0 3.0 0.00 0.00 0.00 88 1013.8
20260905050201 76 295 0.0 3.0 0.00 0.00 0.00 88 1013.8
20260905050006 76 281 2.0 3.0 0.00 0.00 0.00 88 1013.9
20260905045901 76 293 2.0 3.0 0.00 0.00 0.00 88 1014.0
20260905045801 76 280 2.0 4.0 0.00 0.00 0.00 88 1013.9
20260905045701 76 316 2.0 4.0 0.00 0.00 0.00 88 1014.0
20260905045601 76 303 2.0 4.0 0.00 0.00 0.00 88 1014.0
20260905045502 76 314 2.0 4.0 0.00 0.00 0.00 88 1014.0
20260905045402 76 316 2.0 4.0 0.00 0.00 0.00 88 1014.0
20260905045301 76 347 2.0 4.0 0.00 0.00 0.00 88 1014.0
20260905045201 76 340 2.0 4.0 0.00 0.00 0.00 88 1014.0
20260905045101 76 354 2.0 4.0 0.00 0.00 0.00 88 1014.0
20260905045005 76 333 3.0 4.0 0.00 0.00 0.00 88 1014.0
20260905044901 76 340 2.0 3.0 0.00 0.00 0.00 88 1014.0
20260905044701 76 333 2.0 3.0 0.00 0.00 0.00 88 1013.8
20260905044601 76 349 2.0 3.0 0.00 0.00 0.00 88 1013.9
20260905044400 76 333 2.0 3.0 0.00 0.00 0.00 88 1013.8
20260905044301 76 344 2.0 3.0 0.00 0.00 0.00 88 1013.8
20260905044201 76 317 0.0 3.0 0.00 0.00 0.00 88 1013.8
20260905044100 76 311 1.0 3.0 0.00 0.00 0.00 88 1013.8
20260905043801 76 302 1.0 3.0 0.00 0.00 0.00 88 1013.8
20260905043701 76 312 1.0 3.0 0.00 0.00 0.00 88 1013.8
20260905043601 76 321 0.0 3.0 0.00 0.00 0.00 88 1013.8
20260905043504 76 360 2.0 3.0 0.00 0.00 0.00 88 1013.8
20260905043401 76 323 0.0 3.0 0.00 0.00 0.00 88 1013.8
20260905043300 76 331 0.0 3.0 0.00 0.00 0.00 87 1013.8
20260905043201 76 316 1.0 3.0 0.00 0.00 0.00 87 1013.8
20260905043101 76 305 2.0 3.0 0.00 0.00 0.00 87 1013.8
20260905043005 76 302 0.0 3.0 0.00 0.00 0.00 87 1013.9
20260905042900 76 295 0.0 3.0 0.00 0.00 0.00 88 1013.9
20260905042801 76 270 0.0 3.0 0.00 0.00 0.00 88 1014.0
20260905042701 76 312 2.0 3.0 0.00 0.00 0.00 88 1014.0
20260905042602 76 288 2.0 3.0 0.00 0.00 0.00 87 1014.0
20260905042503 76 278 2.0 3.0 0.00 0.00 0.00 87 1014.0
20260905042402 76 283 3.0 3.0 0.00 0.00 0.00 87 1014.0
20260905042200 76 328 1.0 2.0 0.00 0.00 0.00 87 1014.0
20260905042100 76 302 0.0 2.0 0.00 0.00 0.00 87 1014.0
20260905041801 76 307 0.0 3.0 0.00 0.00 0.00 87 1014.1
20260905041701 76 328 0.0 3.0 0.00 0.00 0.00 87 1014.1
20260905041400 76 309 0.0 3.0 0.00 0.00 0.00 87 1014.3
20260905041301 76 307 0.0 3.0 0.00 0.00 0.00 87 1014.2
20260905041201 76 293 1.0 3.0 0.00 0.00 0.00 87 1014.2
20260905041100 76 283 2.0 3.0 0.00 0.00 0.00 87 1014.2
20260905040901 76 333 0.0 3.0 0.00 0.00 0.00 87 1014.3
20260905040700 76 251 0.0 3.0 0.00 0.00 0.00 87 1014.3
20260905040602 76 342 1.0 3.0 0.00 0.00 0.00 87 1014.3
20260905040503 76 279 1.0 3.0 0.00 0.00 0.00 87 1014.3
20260905040401 76 335 2.0 3.0 0.00 0.00 0.00 87 1014.3
20260905040100 76 360 2.0 3.0 0.00 0.00 0.00 87 1014.3
20260905040006 76 347 2.0 3.0 0.00 0.00 0.00 87 1014.3
20260905035902 76 321 2.0 3.0 0.00 0.00 0.00 87 1014.3
20260905035802 76 323 1.0 3.0 0.00 0.00 0.00 87 1014.3
20260905035503 76 323 2.0 3.0 0.00 0.00 0.00 87 1014.3
20260905035202 76 319 0.0 3.0 0.00 0.00 0.00 87 1014.2
20260905035102 76 293 1.0 3.0 0.00 0.00 0.00 87 1014.2
20260905035006 76 304 2.0 3.0 0.00 0.00 0.00 87 1014.2
20260905034901 76 283 3.0 3.0 0.00 0.00 0.00 87 1014.2
20260905034802 76 304 2.0 3.0 0.00 0.00 0.00 87 1014.2
20260905034703 76 333 2.0 3.0 0.00 0.00 0.00 87 1014.2
20260905034505 76 330 2.0 3.0 0.00 0.00 0.00 86 1014.3
20260905034401 76 323 2.0 3.0 0.00 0.00 0.00 86 1014.2
20260905034302 76 1 3.0 3.0 0.00 0.00 0.00 86 1014.3
20260905034202 76 309 0.0 3.0 0.00 0.00 0.00 86 1014.3
20260905033901 76 354 1.0 3.0 0.00 0.00 0.00 86 1014.3
20260905033802 76 312 0.0 3.0 0.00 0.00 0.00 86 1014.3
20260905033702 76 314 0.0 3.0 0.00 0.00 0.00 86 1014.4
20260905033602 76 311 0.0 3.0 0.00 0.00 0.00 86 1014.4
20260905033401 76 273 0.0 3.0 0.00 0.00 0.00 86 1014.5
20260905033302 76 283 1.0 3.0 0.00 0.00 0.00 86 1014.5
20260905033202 76 240 0.0 3.0 0.00 0.00 0.00 86 1014.5
20260905033103 76 240 0.0 3.0 0.00 0.00 0.00 86 1014.5
20260905033006 76 240 0.0 3.0 0.00 0.00 0.00 86 1014.5
20260905032802 76 68 0.0 3.0 0.00 0.00 0.00 86 1014.6
20260905032703 76 333 0.0 3.0 0.00 0.00 0.00 86 1014.6
20260905032502 76 330 0.0 3.0 0.00 0.00 0.00 86 1014.7
20260905032301 76 359 1.0 3.0 0.00 0.00 0.00 86 1014.6
20260905032200 76 358 3.0 3.0 0.00 0.00 0.00 86 1014.7
20260905032101 76 12 0.0 3.0 0.00 0.00 0.00 86 1014.7
20260905031801 77 326 0.0 3.0 0.00 0.00 0.00 86 1014.8
20260905031503 77 15 3.0 3.0 0.00 0.00 0.00 86 1014.8
20260905031400 77 56 2.0 3.0 0.00 0.00 0.00 86 1014.8
20260905031300 77 345 0.0 3.0 0.00 0.00 0.00 86 1015.0
20260905031200 77 345 0.0 3.0 0.00 0.00 0.00 86 1015.0
20260905031100 77 356 0.0 3.0 0.00 0.00 0.00 86 1015.0
20260905030900 77 333 0.0 3.0 0.00 0.00 0.00 86 1015.1
20260905030801 77 12 0.0 2.0 0.00 0.00 0.00 86 1015.1
20260905030700 77 349 0.0 2.0 0.00 0.00 0.00 86 1015.2
20260905030503 77 27 0.0 2.0 0.00 0.00 0.00 86 1015.2
20260905030401 77 43 0.0 2.0 0.00 0.00 0.00 86 1015.2
20260905030302 77 43 0.0 3.0 0.00 0.00 0.00 86 1015.1
20260905030201 77 317 0.0 3.0 0.00 0.00 0.00 85 1015.1
20260905030101 77 317 0.0 3.0 0.00 0.00 0.00 85 1015.1
20260905025901 77 333 0.0 3.0 0.00 0.00 0.00 85 1015.0
20260905025701 77 310 0.0 3.0 0.00 0.00 0.00 85 1015.0
20260905025601 77 305 2.0 3.0 0.00 0.00 0.00 85 1015.0
20260905025504 77 296 2.0 3.0 0.00 0.00 0.00 85 1015.1
20260905025400 77 293 0.0 3.0 0.00 0.00 0.00 85 1015.1
20260905025301 77 307 1.0 3.0 0.00 0.00 0.00 85 1015.2
20260905025201 77 301 2.0 2.0 0.00 0.00 0.00 85 1015.2
20260905025100 77 331 0.0 2.0 0.00 0.00 0.00 85 1015.2
20260905024801 77 307 1.0 2.0 0.00 0.00 0.00 84 1015.4
20260905024700 77 314 2.0 2.0 0.00 0.00 0.00 84 1015.1
20260905024601 77 286 2.0 2.0 0.00 0.00 0.00 84 1015.1
20260905024503 77 307 1.0 2.0 0.00 0.00 0.00 84 1015.1
20260905024401 77 302 0.0 2.0 0.00 0.00 0.00 84 1015.2
20260905024102 77 324 2.0 2.0 0.00 0.00 0.00 84 1015.1
20260905024004 77 309 2.0 3.0 0.00 0.00 0.00 84 1015.1
20260905023800 77 326 0.0 3.0 0.00 0.00 0.00 84 1015.0
20260905023701 77 323 2.0 3.0 0.00 0.00 0.00 84 1015.1
20260905023401 77 323 2.0 3.0 0.00 0.00 0.00 84 1015.0
20260905023301 77 319 1.0 3.0 0.00 0.00 0.00 84 1015.0
20260905023201 77 333 0.0 3.0 0.00 0.00 0.00 84 1015.1
20260905023100 77 323 2.0 3.0 0.00 0.00 0.00 84 1015.1
20260905023004 77 351 2.0 3.0 0.00 0.00 0.00 84 1015.0
20260905022901 77 354 1.0 3.0 0.00 0.00 0.00 84 1015.1
20260905022800 77 303 1.0 3.0 0.00 0.00 0.00 84 1015.0
20260905022701 77 354 0.0 3.0 0.00 0.00 0.00 84 1015.0
20260905022601 77 300 0.0 3.0 0.00 0.00 0.00 83 1015.0
20260905022503 77 314 0.0 3.0 0.00 0.00 0.00 83 1015.0
20260905022400 77 317 1.0 3.0 0.00 0.00 0.00 83 1015.0
20260905022301 77 283 2.0 3.0 0.00 0.00 0.00 83 1015.0
20260905022101 77 296 2.0 3.0 0.00 0.00 0.00 83 1015.0
20260905022004 77 282 2.0 3.0 0.00 0.00 0.00 83 1015.0
20260905021901 77 293 2.0 3.0 0.00 0.00 0.00 83 1015.0
20260905021701 77 295 2.0 3.0 0.00 0.00 0.00 83 1015.0
20260905021601 77 281 2.0 3.0 0.00 0.00 0.00 83 1015.0
20260905021504 77 302 2.0 3.0 0.00 0.00 0.00 83 1015.2
20260905021401 77 301 2.0 3.0 0.00 0.00 0.00 83 1015.1
20260905021301 77 314 1.0 3.0 0.00 0.00 0.00 83 1015.1
20260905021200 77 303 1.0 3.0 0.00 0.00 0.00 83 1015.0
20260905021101 77 310 2.0 3.0 0.00 0.00 0.00 83 1015.0
20260905021004 77 295 2.0 3.0 0.00 0.00 0.00 83 1015.0
20260905020901 77 276 2.0 3.0 0.00 0.00 0.00 83 1015.0
20260905020801 77 314 2.0 3.0 0.00 0.00 0.00 83 1015.0
20260905020601 77 335 2.0 3.0 0.00 0.00 0.00 83 1014.9
20260905020502 77 323 2.0 3.0 0.00 0.00 0.00 83 1014.8
20260905020402 77 326 2.0 3.0 0.00 0.00 0.00 83 1015.0
20260905020300 77 328 2.0 3.0 0.00 0.00 0.00 83 1014.9
20260905020200 77 312 0.0 3.0 0.00 0.00 0.00 83 1015.0
20260905020008 77 328 2.0 3.0 0.00 0.00 0.00 83 1014.9
20260905015902 77 324 2.0 3.0 0.00 0.00 0.00 83 1014.8
20260905015803 77 311 2.0 3.0 0.00 0.00 0.00 83 1014.8
20260905015703 77 316 3.0 3.0 0.00 0.00 0.00 83 1014.8
20260905015602 77 330 2.0 3.0 0.00 0.00 0.00 83 1014.8
20260905015504 77 331 2.0 3.0 0.00 0.00 0.00 83 1014.8
20260905015402 77 311 3.0 3.0 0.00 0.00 0.00 83 1014.8
20260905015301 77 347 3.0 3.0 0.00 0.00 0.00 83 1014.7
20260905015203 77 326 2.0 3.0 0.00 0.00 0.00 83 1014.8
20260905015102 77 331 1.0 3.0 0.00 0.00 0.00 83 1014.8
20260905015006 77 333 2.0 3.0 0.00 0.00 0.00 83 1014.8
20260905014903 77 333 2.0 3.0 0.00 0.00 0.00 83 1014.8
20260905014802 77 326 2.0 3.0 0.00 0.00 0.00 83 1014.8
20260905014702 77 335 2.0 3.0 0.00 0.00 0.00 84 1014.8
20260905014602 77 295 2.0 3.0 0.00 0.00 0.00 84 1014.9
20260905014402 77 311 1.0 3.0 0.00 0.00 0.00 84 1014.9
20260905014302 77 335 1.0 3.0 0.00 0.00 0.00 84 1015.0
20260905014103 77 347 1.0 3.0 0.00 0.00 0.00 84 1015.0
20260905014005 77 304 1.0 3.0 0.00 0.00 0.00 84 1015.0
20260905013902 77 319 1.0 3.0 0.00 0.00 0.00 84 1014.7
20260905013802 77 333 1.0 3.0 0.00 0.00 0.00 84 1014.8
20260905013702 77 8 0.0 3.0 0.00 0.00 0.00 84 1014.8
20260905013601 77 319 0.0 3.0 0.00 0.00 0.00 84 1014.8
20260905013504 77 326 0.0 3.0 0.00 0.00 0.00 84 1014.8
20260905013401 77 316 0.0 3.0 0.00 0.00 0.00 84 1014.7
20260905013301 77 285 1.0 3.0 0.00 0.00 0.00 84 1014.7
20260905013203 77 307 2.0 3.0 0.00 0.00 0.00 84 1014.7
20260905013103 77 319 1.0 3.0 0.00 0.00 0.00 84 1014.8
20260905013005 77 296 2.0 3.0 0.00 0.00 0.00 84 1014.8
20260905012901 77 295 1.0 3.0 0.00 0.00 0.00 84 1014.9
20260905012803 77 296 2.0 3.0 0.00 0.00 0.00 84 1014.9
20260905012702 77 293 2.0 3.0 0.00 0.00 0.00 84 1015.1
20260905012602 77 316 2.0 3.0 0.00 0.00 0.00 84 1015.0
20260905012504 77 307 1.0 3.0 0.00 0.00 0.00 84 1015.1
20260905012403 77 316 2.0 3.0 0.00 0.00 0.00 84 1015.1
20260905012301 77 316 2.0 3.0 0.00 0.00 0.00 84 1015.1
20260905012202 77 301 2.0 3.0 0.00 0.00 0.00 84 1015.1
20260905012101 77 302 2.0 3.0 0.00 0.00 0.00 84 1015.0
20260905012005 77 319 2.0 3.0 0.00 0.00 0.00 84 1015.0
20260905011903 77 326 2.0 3.0 0.00 0.00 0.00 84 1015.0
20260905011801 77 314 2.0 3.0 0.00 0.00 0.00 84 1015.0
20260905011701 77 319 1.0 3.0 0.00 0.00 0.00 84 1015.0
20260905011601 77 335 1.0 3.0 0.00 0.00 0.00 84 1015.0
20260905011505 77 307 1.0 3.0 0.00 0.00 0.00 84 1015.0
20260905011302 77 319 2.0 3.0 0.00 0.00 0.00 84 1014.9
20260905011101 77 321 2.0 3.0 0.00 0.00 0.00 84 1014.9
20260905011004 77 323 1.0 3.0 0.00 0.00 0.00 84 1014.8
20260905010903 77 307 2.0 3.0 0.00 0.00 0.00 84 1014.8
20260905010803 77 342 2.0 3.0 0.00 0.00 0.00 84 1014.7
20260905010703 77 314 0.0 3.0 0.00 0.00 0.00 84 1014.7
20260905010503 77 321 2.0 3.0 0.00 0.00 0.00 84 1014.6
20260905010304 77 309 2.0 3.0 0.00 0.00 0.00 84 1014.6
20260905010202 77 282 2.0 3.0 0.00 0.00 0.00 84 1014.5
20260905010004 77 323 2.0 3.0 0.00 0.00 0.00 84 1014.6
20260905005901 77 293 2.0 3.0 0.00 0.00 0.00 84 1014.5
20260905005800 77 300 1.0 3.0 0.00 0.00 0.00 84 1014.5
20260905005600 77 289 1.0 3.0 0.00 0.00 0.00 84 1014.6
20260905005503 77 328 2.0 3.0 0.00 0.00 0.00 84 1014.5
20260905005301 77 314 2.0 3.0 0.00 0.00 0.00 84 1014.5
20260905005201 77 323 2.0 3.0 0.00 0.00 0.00 84 1014.5
20260905005101 77 295 2.0 3.0 0.00 0.00 0.00 84 1014.5
20260905005004 77 326 2.0 3.0 0.00 0.00 0.00 84 1014.6
20260905004901 77 307 2.0 3.0 0.00 0.00 0.00 84 1014.6
20260905004801 77 321 0.0 3.0 0.00 0.00 0.00 84 1014.6
20260905004700 77 303 0.0 3.0 0.00 0.00 0.00 84 1014.7
20260905004600 77 303 0.0 3.0 0.00 0.00 0.00 84 1014.8
20260905004503 77 303 1.0 3.0 0.00 0.00 0.00 84 1014.6
20260905004301 77 307 2.0 3.0 0.00 0.00 0.00 84 1014.7
20260905004200 77 316 2.0 3.0 0.00 0.00 0.00 84 1014.6
20260905004101 77 302 2.0 3.0 0.00 0.00 0.00 84 1014.7
20260905003901 77 311 2.0 3.0 0.00 0.00 0.00 84 1014.6
20260905003800 77 297 2.0 3.0 0.00 0.00 0.00 83 1014.6
20260905003601 77 307 2.0 3.0 0.00 0.00 0.00 83 1014.6
20260905003502 77 286 2.0 3.0 0.00 0.00 0.00 83 1014.7
20260905003401 77 296 2.0 3.0 0.00 0.00 0.00 83 1014.6
20260905003301 77 296 2.0 3.0 0.00 0.00 0.00 83 1014.6
20260905003202 77 294 2.0 3.0 0.00 0.00 0.00 83 1014.6
20260905003103 77 283 2.0 3.0 0.00 0.00 0.00 83 1014.6
20260905003004 77 304 2.0 3.0 0.00 0.00 0.00 83 1014.7
20260905002900 77 297 3.0 3.0 0.00 0.00 0.00 83 1014.7
20260905002800 77 284 0.0 3.0 0.00 0.00 0.00 83 1014.6
20260905002600 77 271 3.0 3.0 0.00 0.00 0.00 84 1014.6
20260905002503 77 304 2.0 3.0 0.00 0.00 0.00 83 1014.6
20260905002400 77 278 2.0 3.0 0.00 0.00 0.00 83 1014.6
20260905002300 77 293 2.0 3.0 0.00 0.00 0.00 83 1014.6
20260905002201 77 326 1.0 3.0 0.00 0.00 0.00 83 1014.5
20260905002100 77 295 2.0 3.0 0.00 0.00 0.00 83 1014.5
20260905001900 77 302 0.0 3.0 0.00 0.00 0.00 83 1014.5
20260905001801 77 323 2.0 3.0 0.00 0.00 0.00 83 1014.4
20260905001700 77 326 2.0 3.0 0.00 0.00 0.00 83 1014.4
20260905001600 77 307 1.0 3.0 0.00 0.00 0.00 83 1014.4
20260905001400 77 338 0.0 3.0 0.00 0.00 0.00 83 1014.5
20260905001301 77 309 2.0 3.0 0.00 0.00 0.00 83 1014.3
20260905001201 77 330 2.0 3.0 0.00 0.00 0.00 83 1014.4
20260905001100 77 331 2.0 3.0 0.00 0.00 0.00 83 1014.4
20260905001004 77 335 2.0 3.0 0.00 0.00 0.00 83 1014.4
20260905000901 77 314 2.0 3.0 0.00 0.00 0.00 83 1014.5
20260905000801 77 311 1.0 3.0 0.00 0.00 0.00 83 1014.4
20260905000701 77 319 0.0 2.0 0.00 0.00 0.00 83 1014.4
20260905000601 77 333 0.0 3.0 0.00 0.00 0.00 83 1014.4
20260905000503 77 333 0.0 3.0 0.00 0.00 0.00 83 1014.5
20260905000402 77 323 0.0 3.0 0.00 0.00 0.00 83 1014.5
20260905000204 77 329 0.0 3.0 0.00 0.00 0.00 83 1014.4
20260905000100 77 323 0.0 3.0 0.00 0.00 0.00 83 1014.4
20260905000004 77 360 0.0 3.0 0.00 0.00 0.00 83 1014.5
20260904235901 77 328 0.0 3.0 0.00 0.00 0.00 83 1014.5
20260904235801 77 303 2.0 3.0 0.00 0.00 0.00 83 1014.4
20260904235700 77 330 1.0 3.0 0.00 0.00 0.00 82 1014.4
20260904235503 77 342 1.0 5.0 0.00 0.00 0.00 82 1014.4
20260904235400 77 304 1.0 5.0 0.00 0.00 0.00 82 1014.3
20260904235305 77 316 2.0 5.0 0.00 0.00 0.00 82 1014.4
20260904235200 77 323 2.0 5.0 0.00 0.00 0.00 82 1014.3
20260904235101 77 302 2.0 5.0 0.00 0.00 0.00 82 1014.3
20260904234701 78 354 2.0 5.0 0.00 0.00 0.00 82 1014.2
20260904234601 78 302 0.0 3.0 0.00 0.00 0.00 82 1014.2
20260904234503 78 309 0.0 3.0 0.00 0.00 0.00 82 1014.1
20260904234302 78 307 2.0 3.0 0.00 0.00 0.00 82 1014.0
20260904234201 78 340 2.0 3.0 0.00 0.00 0.00 81 1014.1
20260904234100 78 319 0.0 3.0 0.00 0.00 0.00 81 1014.0
20260904234004 78 311 0.0 3.0 0.00 0.00 0.00 81 1014.0
20260904233900 78 338 0.0 3.0 0.00 0.00 0.00 81 1014.0
20260904233801 78 360 2.0 3.0 0.00 0.00 0.00 81 1014.0
20260904233700 78 301 1.0 3.0 0.00 0.00 0.00 81 1014.0
20260904233600 78 302 1.0 3.0 0.00 0.00 0.00 81 1014.0
20260904233503 78 338 2.0 4.0 0.00 0.00 0.00 82 1013.9
20260904233402 78 319 1.0 4.0 0.00 0.00 0.00 81 1014.0
20260904233301 78 321 0.0 4.0 0.00 0.00 0.00 81 1013.9
20260904233201 78 356 2.0 5.0 0.00 0.00 0.00 82 1014.1
20260904233100 78 304 3.0 5.0 0.00 0.00 0.00 82 1014.0
20260904233004 78 295 1.0 5.0 0.00 0.00 0.00 82 1014.1
20260904232900 78 338 2.0 5.0 0.00 0.00 0.00 82 1014.1
20260904232800 78 302 3.0 5.0 0.00 0.00 0.00 82 1014.0
20260904232702 78 311 3.0 5.0 0.00 0.00 0.00 82 1013.8
20260904232600 78 303 4.0 5.0 0.00 0.00 0.00 82 1013.9
20260904232503 78 300 2.0 5.0 0.00 0.00 0.00 82 1013.8
20260904232400 78 269 3.0 5.0 0.00 0.00 0.00 82 1013.9
20260904232200 78 359 3.0 3.0 0.00 0.00 0.00 82 1013.8
20260904232003 78 326 2.0 3.0 0.00 0.00 0.00 82 1013.8
20260904231901 78 303 2.0 3.0 0.00 0.00 0.00 82 1013.8
20260904231800 78 321 2.0 3.0 0.00 0.00 0.00 82 1013.8
20260904231700 78 293 2.0 3.0 0.00 0.00 0.00 82 1013.8
20260904231400 78 283 1.0 4.0 0.00 0.00 0.00 81 1013.9
20260904231300 78 296 1.0 4.0 0.00 0.00 0.00 81 1013.8
20260904231200 78 265 0.0 4.0 0.00 0.00 0.00 81 1013.8
20260904231101 78 347 2.0 4.0 0.00 0.00 0.00 81 1013.9
20260904231004 78 322 0.0 4.0 0.00 0.00 0.00 81 1013.7
20260904230901 78 329 0.0 4.0 0.00 0.00 0.00 81 1013.7
20260904230601 78 314 0.0 3.0 0.00 0.00 0.00 81 1013.7
20260904230503 78 296 2.0 3.0 0.00 0.00 0.00 81 1013.7
20260904230402 78 279 2.0 3.0 0.00 0.00 0.00 81 1013.7
20260904230300 78 302 0.0 3.0 0.00 0.00 0.00 81 1013.7
20260904230201 78 302 0.0 3.0 0.00 0.00 0.00 81 1013.7
20260904230006 78 347 2.0 3.0 0.00 0.00 0.00 81 1013.7
20260904225901 78 319 0.0 4.0 0.00 0.00 0.00 81 1013.6
20260904225801 78 319 0.0 4.0 0.00 0.00 0.00 81 1013.6
20260904225701 78 329 2.0 4.0 0.00 0.00 0.00 82 1013.7
20260904225601 78 324 3.0 4.0 0.00 0.00 0.00 82 1013.7
20260904225503 78 302 2.0 5.0 0.00 0.00 0.00 82 1013.6
20260904225401 78 287 2.0 5.0 0.00 0.00 0.00 82 1013.7
20260904225300 78 300 3.0 5.0 0.00 0.00 0.00 81 1013.7
20260904225202 78 316 3.0 5.0 0.00 0.00 0.00 81 1013.7
20260904225101 78 336 1.0 5.0 0.00 0.00 0.00 81 1013.7
20260904225004 78 324 4.0 5.0 0.00 0.00 0.00 81 1013.7
20260904224901 78 326 2.0 5.0 0.00 0.00 0.00 81 1013.7
20260904224802 78 321 0.0 5.0 0.00 0.00 0.00 81 1013.6
20260904224601 79 293 5.0 5.0 0.00 0.00 0.00 81 1013.7
20260904224503 79 310 2.0 4.0 0.00 0.00 0.00 81 1013.6
20260904224301 79 326 2.0 3.0 0.00 0.00 0.00 81 1013.6
20260904224201 79 297 2.0 3.0 0.00 0.00 0.00 81 1013.6
20260904224101 79 316 1.0 3.0 0.00 0.00 0.00 80 1013.6
20260904224004 79 295 2.0 3.0 0.00 0.00 0.00 80 1013.5
20260904223900 79 317 2.0 3.0 0.00 0.00 0.00 80 1013.4
20260904223800 79 302 0.0 3.0 0.00 0.00 0.00 80 1013.4
20260904223600 79 307 0.0 3.0 0.00 0.00 0.00 80 1013.4
20260904223401 79 273 3.0 3.0 0.00 0.00 0.00 80 1013.5
20260904223302 79 285 1.0 3.0 0.00 0.00 0.00 80 1013.6
20260904223201 79 257 1.0 3.0 0.00 0.00 0.00 80 1013.7
20260904222900 79 302 3.0 3.0 0.00 0.00 0.00 80 1013.7
20260904222800 79 295 2.0 3.0 0.00 0.00 0.00 80 1013.6
20260904222700 79 340 3.0 3.0 0.00 0.00 0.00 80 1013.5
20260904222602 79 328 2.0 3.0 0.00 0.00 0.00 80 1013.6
20260904222400 79 328 1.0 3.0 0.00 0.00 0.00 80 1013.5
20260904222301 79 287 2.0 3.0 0.00 0.00 0.00 80 1013.4
20260904222201 79 286 2.0 3.0 0.00 0.00 0.00 80 1013.4
20260904222101 79 287 3.0 3.0 0.00 0.00 0.00 80 1013.5
20260904222005 79 12 2.0 3.0 0.00 0.00 0.00 80 1013.5
20260904221901 79 303 3.0 3.0 0.00 0.00 0.00 79 1013.5
20260904221801 79 253 3.0 3.0 0.00 0.00 0.00 80 1013.5
20260904221700 80 151 0.0 3.0 0.00 0.00 0.00 79 1013.6
20260904221601 80 307 2.0 3.0 0.00 0.00 0.00 79 1013.7
20260904221302 80 273 1.0 4.0 0.00 0.00 0.00 79 1013.9
20260904221200 80 302 2.0 4.0 0.00 0.00 0.00 79 1013.9
20260904221100 80 305 0.0 4.0 0.00 0.00 0.00 79 1013.9
20260904221003 80 326 0.0 4.0 0.00 0.00 0.00 79 1013.9
20260904220900 80 311 1.0 4.0 0.00 0.00 0.00 79 1013.9
20260904220800 80 286 2.0 4.0 0.00 0.00 0.00 79 1013.9
20260904220701 80 262 3.0 4.0 0.00 0.00 0.00 79 1013.9
20260904220503 80 315 0.0 4.0 0.00 0.00 0.00 79 1013.9
20260904220401 80 285 2.0 4.0 0.00 0.00 0.00 79 1013.9
20260904220302 80 271 3.0 4.0 0.00 0.00 0.00 79 1013.8
20260904220201 80 297 2.0 4.0 0.00 0.00 0.00 78 1013.8
20260904220101 80 282 4.0 4.0 0.00 0.00 0.00 78 1013.8
20260904215801 80 305 0.0 4.0 0.00 0.00 0.00 78 1013.8
20260904215700 80 160 0.0 4.0 0.00 0.00 0.00 78 1013.8
20260904215601 80 163 1.0 4.0 0.00 0.00 0.00 79 1013.8
20260904215503 80 276 0.0 4.0 0.00 0.00 0.00 78 1013.8
20260904215401 80 287 0.0 4.0 0.00 0.00 0.00 79 1013.8
20260904215200 80 264 3.0 3.0 0.00 0.00 0.00 79 1013.9
20260904215004 80 162 0.0 3.0 0.00 0.00 0.00 79 1014.0
20260904214902 80 162 0.0 3.0 0.00 0.00 0.00 79 1013.9
20260904214801 80 300 0.0 4.0 0.00 0.00 0.00 79 1014.0
20260904214700 80 288 3.0 4.0 0.00 0.00 0.00 79 1013.9
20260904214601 80 302 0.0 4.0 0.00 0.00 0.00 78 1014.1
20260904214504 80 340 0.0 4.0 0.00 0.00 0.00 79 1014.2
20260904214401 80 314 0.0 4.0 0.00 0.00 0.00 79 1014.2
20260904214301 80 295 2.0 4.0 0.00 0.00 0.00 79 1014.1
20260904214200 80 352 0.0 4.0 0.00 0.00 0.00 79 1014.0
20260904214101 80 321 1.0 4.0 0.00 0.00 0.00 79 1013.9
20260904213901 80 301 2.0 4.0 0.00 0.00 0.00 79 1014.0
20260904213800 79 303 2.0 4.0 0.00 0.00 0.00 79 1013.9
20260904213700 80 310 2.0 4.0 0.00 0.00 0.00 79 1013.9
20260904213601 80 300 1.0 4.0 0.00 0.00 0.00 79 1013.8
20260904213503 80 300 1.0 4.0 0.00 0.00 0.00 79 1013.9
20260904213301 80 280 3.0 4.0 0.00 0.00 0.00 79 1013.8
20260904213201 80 286 3.0 4.0 0.00 0.00 0.00 79 1013.7
20260904213101 80 268 3.0 4.0 0.00 0.00 0.00 79 1013.7
20260904213005 80 278 3.0 4.0 0.00 0.00 0.00 79 1013.8
20260904212902 79 293 2.0 4.0 0.00 0.00 0.00 79 1013.8
20260904212701 79 302 0.0 4.0 0.00 0.00 0.00 79 1013.7
20260904212601 79 19 0.0 4.0 0.00 0.00 0.00 79 1013.7
20260904212503 79 252 0.0 4.0 0.00 0.00 0.00 79 1013.7
20260904212401 79 293 1.0 4.0 0.00 0.00 0.00 79 1013.7
20260904212301 79 289 2.0 4.0 0.00 0.00 0.00 79 1013.8
20260904212200 79 255 3.0 4.0 0.00 0.00 0.00 79 1013.8
20260904212101 79 268 3.0 4.0 0.00 0.00 0.00 79 1013.9
20260904212005 79 307 4.0 4.0 0.00 0.00 0.00 79 1014.0
20260904211900 79 293 3.0 4.0 0.00 0.00 0.00 79 1014.1
20260904211702 80 319 3.0 3.0 0.00 0.00 0.00 79 1014.2
20260904211600 80 280 2.0 3.0 0.00 0.00 0.00 78 1014.2
20260904211503 80 25 0.0 4.0 0.00 0.00 0.00 78 1014.2
20260904211401 80 153 0.0 4.0 0.00 0.00 0.00 78 1014.2
20260904211301 80 319 0.0 5.0 0.00 0.00 0.00 78 1014.0
20260904211101 80 335 2.0 5.0 0.00 0.00 0.00 78 1014.0
20260904210900 80 219 0.0 5.0 0.00 0.00 0.00 77 1014.0
20260904210801 80 269 1.0 5.0 0.00 0.00 0.00 77 1014.0
20260904210701 80 260 2.0 5.0 0.00 0.00 0.00 77 1014.0
20260904210601 80 56 2.0 5.0 0.00 0.00 0.00 77 1013.9
20260904210503 80 258 2.0 5.0 0.00 0.00 0.00 76 1013.9
20260904210202 81 288 0.0 5.0 0.00 0.00 0.00 77 1013.8
20260904210101 81 262 1.0 5.0 0.00 0.00 0.00 76 1013.7
20260904210008 81 169 0.0 5.0 0.00 0.00 0.00 76 1013.7
20260904205902 81 71 3.0 6.0 0.00 0.00 0.00 76 1013.8
20260904205804 81 179 0.0 6.0 0.00 0.00 0.00 76 1013.8
20260904205702 81 8 2.0 6.0 0.00 0.00 0.00 76 1013.7
20260904205601 81 258 2.0 6.0 0.00 0.00 0.00 76 1013.9
20260904205503 81 338 0.0 6.0 0.00 0.00 0.00 76 1014.0
20260904205305 82 121 2.0 6.0 0.00 0.00 0.00 75 1014.0
20260904205102 82 153 3.0 6.0 0.00 0.00 0.00 75 1014.1
20260904205004 82 139 2.0 4.0 0.00 0.00 0.00 75 1014.2
20260904204901 82 142 3.0 4.0 0.00 0.00 0.00 75 1014.1
20260904204802 82 122 3.0 6.0 0.00 0.00 0.00 76 1014.1
20260904204701 82 258 2.0 6.0 0.00 0.00 0.00 76 1014.1
20260904204601 82 288 0.0 6.0 0.00 0.00 0.00 76 1014.2
20260904204503 82 233 0.0 6.0 0.00 0.00 0.00 75 1014.2
20260904204401 82 239 3.0 6.0 0.00 0.00 0.00 75 1014.2
20260904204101 82 169 1.0 6.0 0.00 0.00 0.00 74 1014.3
20260904204005 83 228 0.0 6.0 0.00 0.00 0.00 74 1014.3
20260904203902 83 298 0.0 6.0 0.00 0.00 0.00 73 1014.3
20260904203802 83 33 3.0 6.0 0.00 0.00 0.00 73 1014.2
20260904203401 84 262 3.0 6.0 0.00 0.00 0.00 71 1014.2
20260904203301 84 133 4.0 6.0 0.00 0.00 0.00 71 1014.1
20260904203202 84 143 1.0 6.0 0.00 0.00 0.00 71 1014.1
20260904203103 85 360 0.0 8.0 0.00 0.00 0.00 71 1014.1
20260904203006 85 105 1.0 8.0 0.00 0.00 0.00 70 1014.0
20260904202801 85 63 0.0 8.0 0.00 0.00 0.00 70 1014.1
20260904202701 85 324 3.0 8.0 0.00 0.00 0.00 71 1014.0
20260904202602 85 273 3.0 8.0 0.00 0.00 0.00 71 1014.0
20260904202504 85 349 6.0 8.0 0.00 0.00 0.00 70 1014.1
20260904202403 85 336 0.0 8.0 0.00 0.00 0.00 69 1014.1
20260904202301 85 342 4.0 8.0 0.00 0.00 0.00 68 1014.1
20260904202203 86 11 4.0 8.0 0.00 0.00 0.00 68 1014.1
20260904202102 86 139 0.0 10.0 0.00 0.00 0.00 68 1014.0
20260904201901 87 357 2.0 10.0 0.00 0.00 0.00 67 1013.9
20260904201802 87 328 3.0 10.0 0.00 0.00 0.00 66 1013.8
20260904201702 88 279 5.0 10.0 0.00 0.00 0.00 65 1013.8
20260904201602 89 306 3.0 10.0 0.00 0.00 0.00 63 1013.8
20260904201504 90 49 4.0 10.0 0.00 0.00 0.00 62 1013.6
20260904201401 91 11 4.0 10.0 0.00 0.00 0.00 61 1013.7
20260904201301 92 26 7.0 10.0 0.00 0.00 0.00 59 1013.7
20260904201202 93 352 7.0 10.0 0.00 0.00 0.00 57 1013.7
20260904201101 93 351 5.0 10.0 0.00 0.00 0.00 56 1013.7
20260904201006 93 322 5.0 9.0 0.00 0.00 0.00 56 1013.7
20260904200902 93 8 2.0 9.0 0.00 0.00 0.00 56 1013.6
20260904200702 94 8 3.0 7.0 0.00 0.00 0.00 55 1013.6
20260904200602 94 8 4.0 7.0 0.00 0.00 0.00 54 1013.6
20260904200503 94 30 4.0 7.0 0.00 0.00 0.00 54 1013.5
20260904200402 94 347 4.0 7.0 0.00 0.00 0.00 53 1013.6
20260904200304 95 321 5.0 7.0 0.00 0.00 0.00 53 1013.6
20260904200203 95 294 3.0 7.0 0.00 0.00 0.00 53 1013.6
20260904200101 96 318 2.0 7.0 0.00 0.00 0.00 52 1013.5
20260904200007 96 354 5.0 7.0 0.00 0.00 0.00 53 1013.5
20260904195900 96 11 3.0 7.0 0.00 0.00 0.00 53 1013.4
20260904195800 95 360 5.0 7.0 0.00 0.00 0.00 54 1013.4
20260904195701 95 15 7.0 7.0 0.00 0.00 0.00 53 1013.4
20260904195601 95 348 5.0 7.0 0.00 0.00 0.00 54 1013.5
20260904195502 95 13 3.0 6.0 0.00 0.00 0.00 54 1013.5
20260904195400 95 348 6.0 6.0 0.00 0.00 0.00 54 1013.5
20260904195300 95 30 3.0 6.0 0.00 0.00 0.00 54 1013.5
20260904195200 95 351 4.0 6.0 0.00 0.00 0.00 53 1013.5
20260904195102 95 6 5.0 6.0 0.00 0.00 0.00 53 1013.5
20260904195003 94 338 5.0 6.0 0.00 0.00 0.00 54 1013.5
20260904194800 94 8 6.0 6.0 0.00 0.00 0.00 55 1013.5
20260904194701 94 355 1.0 6.0 0.00 0.00 0.00 56 1013.4
20260904194601 93 357 2.0 6.0 0.00 0.00 0.00 56 1013.5
20260904194503 93 1 4.0 6.0 0.00 0.00 0.00 55 1013.5
20260904194400 93 341 4.0 6.0 0.00 0.00 0.00 55 1013.5
20260904194301 93 287 2.0 6.0 0.00 0.00 0.00 55 1013.5
20260904194200 94 305 3.0 6.0 0.00 0.00 0.00 55 1013.5
20260904194101 94 350 3.0 5.0 0.00 0.00 0.00 55 1013.5
20260904194006 94 4 4.0 6.0 0.00 0.00 0.00 56 1013.5
20260904193900 94 352 4.0 6.0 0.00 0.00 0.00 56 1013.5
20260904193700 94 351 4.0 6.0 0.00 0.00 0.00 54 1013.5
20260904193559 94 360 4.0 6.0 0.00 0.00 0.00 55 1013.4
20260904193503 94 8 3.0 9.0 0.00 0.00 0.00 55 1013.4
20260904193400 94 337 2.0 10.0 0.00 0.00 0.00 55 1013.4
20260904193300 94 306 3.0 10.0 0.00 0.00 0.00 54 1013.4
20260904193201 94 358 5.0 10.0 0.00 0.00 0.00 53 1013.4
20260904193101 95 310 2.0 10.0 0.00 0.00 0.00 54 1013.4
20260904193005 95 15 2.0 10.0 0.00 0.00 0.00 53 1013.4
20260904192900 95 343 4.0 10.0 0.00 0.00 0.00 54 1013.3
20260904192802 95 346 5.0 10.0 0.00 0.00 0.00 54 1013.4
20260904192700 95 360 4.0 10.0 0.00 0.00 0.00 53 1013.4
20260904192601 95 338 9.0 10.0 0.00 0.00 0.00 52 1013.5
20260904192503 96 340 5.0 10.0 0.00 0.00 0.00 52 1013.5
20260904192400 96 341 5.0 9.0 0.00 0.00 0.00 53 1013.6
20260904192100 95 3 7.0 9.0 0.00 0.00 0.00 53 1013.6
20260904191900 95 355 5.0 9.0 0.00 0.00 0.00 52 1013.6
20260904191801 95 346 6.0 9.0 0.00 0.00 0.00 53 1013.6
20260904191701 95 354 5.0 8.0 0.00 0.00 0.00 53 1013.6
20260904191600 94 341 5.0 8.0 0.00 0.00 0.00 56 1013.6
20260904191503 93 6 6.0 8.0 0.00 0.00 0.00 56 1013.6
20260904191401 93 341 4.0 8.0 0.00 0.00 0.00 55 1013.7
20260904191301 94 343 5.0 8.0 0.00 0.00 0.00 55 1013.7
20260904191200 94 348 6.0 8.0 0.00 0.00 0.00 55 1013.7
20260904191101 94 354 5.0 8.0 0.00 0.00 0.00 54 1013.8
20260904191003 95 34 2.0 8.0 0.00 0.00 0.00 54 1013.8
20260904190901 95 346 4.0 8.0 0.00 0.00 0.00 54 1013.8
20260904190800 95 338 1.0 8.0 0.00 0.00 0.00 55 1013.7
20260904190701 95 33 3.0 7.0 0.00 0.00 0.00 56 1013.7
20260904190601 95 24 1.0 7.0 0.00 0.00 0.00 55 1013.7
20260904190503 95 344 5.0 7.0 0.00 0.00 0.00 56 1013.8
20260904190400 95 315 3.0 7.0 0.00 0.00 0.00 55 1013.7
20260904190201 94 27 6.0 7.0 0.00 0.00 0.00 55 1013.8
20260904190100 94 55 2.0 8.0 0.00 0.00 0.00 56 1013.8
20260904190004 93 348 5.0 9.0 0.00 0.00 0.00 57 1013.9
20260904185901 93 347 5.0 9.0 0.00 0.00 0.00 55 1014.0
20260904185800 93 345 6.0 9.0 0.00 0.00 0.00 55 1014.0
20260904185702 94 345 3.0 9.0 0.00 0.00 0.00 55 1014.1
20260904185601 94 340 4.0 9.0 0.00 0.00 0.00 53 1014.2
20260904185502 95 68 0.0 9.0 0.00 0.00 0.00 53 1014.1
20260904185400 95 348 2.0 9.0 0.00 0.00 0.00 54 1014.1
20260904185301 95 357 4.0 9.0 0.00 0.00 0.00 53 1014.1
20260904185201 95 336 4.0 9.0 0.00 0.00 0.00 53 1014.1
20260904185101 96 350 5.0 9.0 0.00 0.00 0.00 53 1014.1
20260904185005 95 360 5.0 9.0 0.00 0.00 0.00 53 1014.1
20260904184901 95 335 4.0 9.0 0.00 0.00 0.00 55 1014.0
20260904184801 95 13 6.0 10.0 0.00 0.00 0.00 54 1014.1
20260904184601 94 341 5.0 10.0 0.00 0.00 0.00 54 1014.1
20260904184503 94 324 4.0 10.0 0.00 0.00 0.00 55 1014.0
20260904184400 94 351 5.0 10.0 0.00 0.00 0.00 55 1014.1
20260904184300 94 65 3.0 10.0 0.00 0.00 0.00 55 1014.1
20260904184202 94 326 4.0 10.0 0.00 0.00 0.00 56 1014.1
20260904184059 93 356 6.0 11.0 0.00 0.00 0.00 57 1014.1
20260904184004 93 342 4.0 12.0 0.00 0.00 0.00 58 1014.1
20260904183900 92 344 5.0 12.0 0.00 0.00 0.00 57 1014.1
20260904183700 93 341 4.0 12.0 0.00 0.00 0.00 57 1014.0
20260904183600 93 343 7.0 12.0 0.00 0.00 0.00 57 1014.1
20260904183503 93 6 7.0 12.0 0.00 0.00 0.00 57 1014.1
20260904183400 93 347 4.0 12.0 0.00 0.00 0.00 57 1014.0
20260904183300 93 335 5.0 12.0 0.00 0.00 0.00 56 1014.1
20260904183200 94 345 9.0 12.0 0.00 0.00 0.00 57 1014.0
20260904183101 94 348 8.0 8.0 0.00 0.00 0.00 58 1014.0
20260904183004 93 340 6.0 8.0 0.00 0.00 0.00 58 1014.0
20260904182801 93 34 1.0 10.0 0.00 0.00 0.00 58 1014.1
20260904182700 93 6 8.0 10.0 0.00 0.00 0.00 59 1014.2
20260904182601 93 330 5.0 10.0 0.00 0.00 0.00 59 1014.2
20260904182504 92 4 6.0 10.0 0.00 0.00 0.00 60 1014.1
20260904182400 92 45 3.0 10.0 0.00 0.00 0.00 59 1014.2
20260904182301 92 344 2.0 10.0 0.00 0.00 0.00 59 1014.2
20260904182200 92 358 6.0 10.0 0.00 0.00 0.00 58 1014.1
20260904182101 92 343 5.0 10.0 0.00 0.00 0.00 58 1014.2
20260904182003 93 343 5.0 10.0 0.00 0.00 0.00 58 1014.2
20260904181900 93 343 8.0 9.0 0.00 0.00 0.00 59 1014.2
20260904181801 93 352 5.0 7.0 0.00 0.00 0.00 58 1014.2
20260904181700 93 4 5.0 7.0 0.00 0.00 0.00 59 1014.2
20260904181600 93 59 1.0 7.0 0.00 0.00 0.00 59 1014.3
20260904181401 92 1 6.0 8.0 0.00 0.00 0.00 62 1014.4
20260904181301 91 341 5.0 8.0 0.00 0.00 0.00 61 1014.4
20260904181200 91 348 4.0 8.0 0.00 0.00 0.00 61 1014.4
20260904181101 91 337 5.0 8.0 0.00 0.00 0.00 60 1014.4
20260904181004 92 8 7.0 8.0 0.00 0.00 0.00 59 1014.5
20260904180900 92 347 4.0 8.0 0.00 0.00 0.00 59 1014.5
20260904180801 92 347 5.0 8.0 0.00 0.00 0.00 61 1014.5
20260904180701 91 324 3.0 8.0 0.00 0.00 0.00 61 1014.5
20260904180503 91 343 6.0 8.0 0.00 0.00 0.00 60 1014.5
20260904180400 91 347 5.0 8.0 0.00 0.00 0.00 60 1014.6
20260904180300 92 1 2.0 8.0 0.00 0.00 0.00 61 1014.7
20260904180201 91 25 6.0 8.0 0.00 0.00 0.00 60 1014.7
20260904180100 91 360 5.0 8.0 0.00 0.00 0.00 60 1014.6
20260904180005 91 337 6.0 9.0 0.00 0.00 0.00 60 1014.7
20260904175900 92 4 2.0 9.0 0.00 0.00 0.00 59 1014.8
20260904175600 92 13 6.0 9.0 0.00 0.00 0.00 59 1015.0
20260904175502 92 355 5.0 9.0 0.00 0.00 0.00 59 1015.0
20260904175400 92 320 5.0 9.0 0.00 0.00 0.00 59 1015.0
20260904175200 92 340 6.0 9.0 0.00 0.00 0.00 59 1015.0
20260904175102 93 356 8.0 9.0 0.00 0.00 0.00 59 1015.1
20260904175004 93 26 3.0 9.0 0.00 0.00 0.00 59 1015.0
20260904174900 93 355 5.0 8.0 0.00 0.00 0.00 57 1015.0
20260904174801 94 27 2.0 8.0 0.00 0.00 0.00 57 1015.1
20260904174601 94 354 3.0 8.0 0.00 0.00 0.00 57 1015.2
20260904174503 94 328 5.0 8.0 0.00 0.00 0.00 58 1015.2
20260904174400 94 354 6.0 8.0 0.00 0.00 0.00 58 1015.1
20260904174301 94 27 5.0 8.0 0.00 0.00 0.00 58 1015.2
20260904174200 94 79 3.0 8.0 0.00 0.00 0.00 59 1015.2
20260904174102 94 360 6.0 8.0 0.00 0.00 0.00 59 1015.2
20260904173801 93 329 3.0 8.0 0.00 0.00 0.00 60 1015.2
20260904173700 93 345 3.0 8.0 0.00 0.00 0.00 61 1015.2
20260904173602 92 6 8.0 8.0 0.00 0.00 0.00 61 1015.2
20260904173504 92 71 3.0 8.0 0.00 0.00 0.00 61 1015.2
20260904173300 93 41 2.0 8.0 0.00 0.00 0.00 59 1015.2
20260904173202 93 44 6.0 8.0 0.00 0.00 0.00 62 1015.3
20260904173011 92 347 5.0 7.0 0.00 0.00 0.00 63 1015.3
20260904172900 91 25 6.0 7.0 0.00 0.00 0.00 64 1015.3
20260904172700 91 345 3.0 7.0 0.00 0.00 0.00 65 1015.4
20260904172600 90 15 3.0 7.0 0.00 0.00 0.00 65 1015.4
20260904172503 90 359 4.0 7.0 0.00 0.00 0.00 64 1015.4
20260904172402 90 333 3.0 7.0 0.00 0.00 0.00 65 1015.5
20260904172201 90 39 4.0 8.0 0.00 0.00 0.00 67 1015.4
20260904172100 89 12 3.0 8.0 0.00 0.00 0.00 66 1015.5
20260904172004 88 17 5.0 8.0 0.00 0.00 0.00 66 1015.5
20260904171900 88 41 2.0 8.0 0.00 0.00 0.00 67 1015.6
20260904171800 88 70 3.0 8.0 0.00 0.00 0.00 67 1015.5
20260904171700 88 341 3.0 8.0 0.00 0.00 0.00 68 1015.6
20260904171600 88 136 3.0 8.0 0.00 0.00 0.00 67 1015.6
20260904171503 88 8 4.0 8.0 0.00 0.00 0.00 67 1015.5
20260904171400 88 25 3.0 7.0 0.00 0.00 0.00 67 1015.7
20260904171301 88 77 4.0 6.0 0.00 0.00 0.00 67 1015.6
20260904171200 88 31 3.0 6.0 0.00 0.00 0.00 68 1015.7
20260904171100 88 355 5.0 6.0 0.00 0.00 0.00 67 1015.8
20260904171004 88 91 2.0 6.0 0.00 0.00 0.00 68 1015.8
20260904170900 88 39 3.0 5.0 0.00 0.00 0.00 68 1015.8
20260904170801 88 41 2.0 5.0 0.00 0.00 0.00 68 1015.8
20260904170701 88 13 2.0 6.0 0.00 0.00 0.00 68 1015.8
20260904170602 87 360 1.0 6.0 0.00 0.00 0.00 68 1015.8
20260904170503 88 346 0.0 6.0 0.00 0.00 0.00 68 1015.9
20260904170300 88 3 5.0 6.0 0.00 0.00 0.00 69 1016.0
20260904170159 87 26 2.0 6.0 0.00 0.00 0.00 69 1016.0
20260904170008 88 352 2.0 6.0 0.00 0.00 0.00 69 1016.1
20260904165900 88 10 4.0 6.0 0.00 0.00 0.00 68 1016.0
20260904165601 88 352 4.0 8.0 0.00 0.00 0.00 68 1016.1
20260904165300 88 41 4.0 8.0 0.00 0.00 0.00 68 1016.0
20260904165200 88 64 0.0 8.0 0.00 0.00 0.00 68 1015.9
20260904165101 88 348 4.0 8.0 0.00 0.00 0.00 68 1016.0
20260904165004 88 34 0.0 8.0 0.00 0.00 0.00 67 1016.0
20260904164900 88 32 4.0 8.0 0.00 0.00 0.00 68 1016.0
20260904164701 89 339 3.0 8.0 0.00 0.00 0.00 65 1016.1
20260904164601 89 5 3.0 8.0 0.00 0.00 0.00 66 1016.0
20260904164503 89 33 5.0 8.0 0.00 0.00 0.00 66 1016.0
20260904164300 89 6 8.0 8.0 0.00 0.00 0.00 66 1016.0
20260904164201 90 350 5.0 7.0 0.00 0.00 0.00 65 1016.0
20260904164004 90 359 4.0 7.0 0.00 0.00 0.00 66 1016.0
20260904163901 90 23 5.0 7.0 0.00 0.00 0.00 67 1015.9
20260904163801 90 10 3.0 7.0 0.00 0.00 0.00 66 1016.0
20260904163700 90 348 4.0 7.0 0.00 0.00 0.00 67 1016.0
20260904163600 90 1 4.0 7.0 0.00 0.00 0.00 67 1015.9
20260904163502 90 3 5.0 7.0 0.00 0.00 0.00 68 1016.0
20260904163400 89 348 4.0 7.0 0.00 0.00 0.00 68 1015.9
20260904163300 89 3 3.0 7.0 0.00 0.00 0.00 68 1016.0
20260904163201 88 4 4.0 7.0 0.00 0.00 0.00 68 1016.1
20260904163004 89 336 3.0 7.0 0.00 0.00 0.00 67 1016.1
20260904162900 89 19 4.0 7.0 0.00 0.00 0.00 68 1016.1
20260904162700 89 360 6.0 7.0 0.00 0.00 0.00 68 1016.2
20260904162503 89 360 3.0 7.0 0.00 0.00 0.00 67 1016.3
20260904162401 89 345 3.0 7.0 0.00 0.00 0.00 67 1016.2
20260904162300 89 24 3.0 7.0 0.00 0.00 0.00 67 1016.2
20260904162200 89 360 3.0 7.0 0.00 0.00 0.00 67 1016.2
20260904162100 89 311 2.0 7.0 0.00 0.00 0.00 66 1016.2
20260904162003 89 73 2.0 7.0 0.00 0.00 0.00 67 1016.2
20260904161801 89 39 5.0 7.0 0.00 0.00 0.00 69 1016.2
20260904161701 89 75 3.0 6.0 0.00 0.00 0.00 71 1016.2
20260904161601 88 303 0.0 6.0 0.00 0.00 0.00 71 1016.2
20260904161503 87 288 3.0 6.0 0.00 0.00 0.00 72 1016.2
20260904161400 87 335 3.0 6.0 0.00 0.00 0.00 72 1016.2
20260904161200 86 346 3.0 6.0 0.00 0.00 0.00 73 1016.3
20260904161100 86 353 5.0 6.0 0.00 0.00 0.00 73 1016.2
20260904161004 86 144 0.0 6.0 0.00 0.00 0.00 72 1016.2
20260904160901 86 34 3.0 6.0 0.00 0.00 0.00 73 1016.3
20260904160802 86 310 2.0 6.0 0.00 0.00 0.00 72 1016.3
20260904160700 86 356 2.0 6.0 0.00 0.00 0.00 72 1016.3
20260904160600 86 22 1.0 6.0 0.00 0.00 0.00 71 1016.3
20260904160503 87 113 4.0 6.0 0.00 0.00 0.00 71 1016.2
20260904160301 87 1 4.0 6.0 0.00 0.00 0.00 70 1016.3
20260904160201 87 360 2.0 6.0 0.00 0.00 0.00 71 1016.2
20260904160100 88 345 2.0 6.0 0.00 0.00 0.00 71 1016.3
20260904160006 88 75 2.0 6.0 0.00 0.00 0.00 70 1016.3
20260904155901 88 13 4.0 6.0 0.00 0.00 0.00 71 1016.2
20260904155800 87 1 4.0 6.0 0.00 0.00 0.00 73 1016.3
20260904155700 87 8 4.0 6.0 0.00 0.00 0.00 73 1016.2
20260904155600 87 4 5.0 5.0 0.00 0.00 0.00 73 1016.3
20260904155400 86 289 0.0 4.0 0.00 0.00 0.00 75 1016.4
20260904155301 85 8 3.0 4.0 0.00 0.00 0.00 75 1016.3
20260904155201 85 352 3.0 4.0 0.00 0.00 0.00 74 1016.4
20260904155100 85 33 0.0 4.0 0.00 0.00 0.00 75 1016.3
20260904155005 85 70 2.0 4.0 0.00 0.00 0.00 74 1016.3
20260904154901 85 107 3.0 5.0 0.00 0.00 0.00 74 1016.2
20260904154800 85 349 0.0 5.0 0.00 0.00 0.00 74 1016.2
20260904154702 86 111 3.0 5.0 0.00 0.00 0.00 74 1016.2
20260904154600 86 357 4.0 5.0 0.00 0.00 0.00 75 1016.2
20260904154502 85 1 4.0 5.0 0.00 0.00 0.00 75 1016.2
20260904154400 85 26 3.0 5.0 0.00 0.00 0.00 75 1016.2
20260904154301 85 324 4.0 5.0 0.00 0.00 0.00 75 1016.2
20260904154200 85 13 4.0 5.0 0.00 0.00 0.00 76 1016.2
20260904154100 85 350 4.0 5.0 0.00 0.00 0.00 76 1016.2
20260904154004 85 340 4.0 5.0 0.00 0.00 0.00 76 1016.2
20260904153800 85 263 2.0 5.0 0.00 0.00 0.00 76 1016.2
20260904153701 85 1 3.0 5.0 0.00 0.00 0.00 76 1016.2
20260904153600 85 292 1.0 6.0 0.00 0.00 0.00 76 1016.2
20260904153503 85 76 4.0 6.0 0.00 0.00 0.00 76 1016.2
20260904153400 85 8 2.0 6.0 0.00 0.00 0.00 75 1016.2
20260904153300 85 107 0.0 6.0 0.00 0.00 0.00 75 1016.2
20260904153159 85 326 0.0 6.0 0.00 0.00 0.00 74 1016.2
20260904153101 86 360 4.0 6.0 0.00 0.00 0.00 74 1016.2
20260904153003 86 360 4.0 6.0 0.00 0.00 0.00 74 1016.2
20260904152901 86 360 4.0 6.0 0.00 0.00 0.00 74 1016.2
20260904152801 86 360 4.0 6.0 0.00 0.00 0.00 74 1016.3
20260904152558 86 353 5.0 6.0 0.00 0.00 0.00 75 1016.1
20260904152459 86 352 2.0 6.0 0.00 0.00 0.00 76 1016.1
20260904152400 85 349 3.0 6.0 0.00 0.00 0.00 76 1016.1
20260904152258 85 17 4.0 6.0 0.00 0.00 0.00 75 1016.2
20260904152200 85 341 5.0 6.0 0.00 0.00 0.00 75 1016.1
20260904151858 85 335 3.0 5.0 0.00 0.00 0.00 76 1016.1
20260904151759 85 49 0.0 5.0 0.00 0.00 0.00 75 1016.1
20260904151659 86 105 3.0 5.0 0.00 0.00 0.00 75 1016.1
20260904151558 85 338 3.0 5.0 0.00 0.00 0.00 76 1016.1
20260904151059 85 8 2.0 5.0 0.00 0.00 0.00 76 1016.1
20260904151002 85 334 3.0 5.0 0.00 0.00 0.00 76 1016.2
20260904150858 84 354 0.0 6.0 0.00 0.00 0.00 76 1016.2
20260904150759 84 323 1.0 6.0 0.00 0.00 0.00 76 1016.2
20260904150700 85 73 2.0 6.0 0.00 0.00 0.00 76 1016.2
20260904150558 85 71 0.0 6.0 0.00 0.00 0.00 76 1016.1
20260904150503 84 343 3.0 6.0 0.00 0.00 0.00 76 1016.0
20260904150358 84 342 3.0 6.0 0.00 0.00 0.00 76 1016.0
20260904150258 84 322 5.0 6.0 0.00 0.00 0.00 76 1016.0
20260904150159 84 140 3.0 6.0 0.00 0.00 0.00 77 1016.0
20260904150100 84 359 4.0 6.0 0.00 0.00 0.00 77 1015.9
20260904150003 84 345 4.0 6.0 0.00 0.00 0.00 77 1016.1
20260904145858 84 353 1.0 6.0 0.00 0.00 0.00 78 1016.0
20260904145758 84 1 3.0 6.0 0.00 0.00 0.00 78 1016.0
20260904145658 84 341 3.0 4.0 0.00 0.00 0.00 78 1016.0
20260904145558 83 338 1.0 4.0 0.00 0.00 0.00 78 1016.0
20260904145500 83 91 3.0 4.0 0.00 0.00 0.00 79 1016.1
20260904145358 83 359 3.0 4.0 0.00 0.00 0.00 79 1015.9
20260904145258 83 6 2.0 4.0 0.00 0.00 0.00 79 1016.0
20260904145200 83 312 2.0 4.0 0.00 0.00 0.00 79 1016.0
20260904145059 83 289 4.0 4.0 0.00 0.00 0.00 79 1015.9
20260904144859 83 322 3.0 4.0 0.00 0.00 0.00 80 1015.9
20260904144758 83 302 2.0 4.0 0.00 0.00 0.00 79 1016.0
20260904144700 83 285 1.0 4.0 0.00 0.00 0.00 79 1016.0
20260904144459 83 310 0.0 4.0 0.00 0.00 0.00 79 1016.0
20260904144359 83 347 3.0 4.0 0.00 0.00 0.00 80 1016.0
20260904144159 83 22 4.0 4.0 0.00 0.00 0.00 81 1016.0
20260904143858 82 135 0.0 4.0 0.00 0.00 0.00 81 1016.0
20260904143800 82 33 2.0 4.0 0.00 0.00 0.00 81 1016.0
20260904143659 82 360 3.0 3.0 0.00 0.00 0.00 82 1015.9
20260904143559 81 338 0.0 3.0 0.00 0.00 0.00 82 1015.9
20260904143500 81 290 0.0 3.0 0.00 0.00 0.00 82 1016.0
20260904143359 81 149 1.0 3.0 0.00 0.00 0.00 82 1015.9
20260904143258 81 151 0.0 3.0 0.00 0.00 0.00 82 1015.9
20260904143059 81 141 1.0 3.0 0.00 0.00 0.00 81 1016.0
20260904143003 81 52 0.0 3.0 0.00 0.00 0.00 81 1016.0
20260904142859 81 249 0.0 3.0 0.00 0.00 0.00 81 1016.0
20260904142700 81 131 0.0 4.0 0.00 0.00 0.00 81 1015.9
20260904142559 82 338 0.0 4.0 0.00 0.00 0.00 81 1015.9
20260904142500 82 130 0.0 4.0 0.00 0.00 0.00 81 1015.9
20260904142358 82 130 1.0 4.0 0.00 0.00 0.00 81 1015.8
20260904142259 82 276 1.0 4.0 0.00 0.00 0.00 81 1015.8
20260904142159 82 291 3.0 4.0 0.00 0.00 0.00 82 1015.7
20260904141759 81 246 0.0 3.0 0.00 0.00 0.00 83 1015.8
20260904141559 81 269 0.0 3.0 0.00 0.00 0.00 83 1015.8
20260904141501 81 198 0.0 3.0 0.00 0.00 0.00 83 1015.7
20260904141358 80 128 0.0 3.0 0.00 0.00 0.00 83 1015.8
20260904141258 80 304 0.0 3.0 0.00 0.00 0.00 83 1015.8
20260904141158 80 233 0.0 3.0 0.00 0.00 0.00 83 1015.7